Time,TemperatureF,DewpointF,PressureIn,WindDirection,WindDirectionDegrees,WindSpeedMPH,WindSpeedGustMPH,Humidity,HourlyPrecipIn,Conditions,Clouds,dailyrainin,SoftwareType,DateUTC
2013-07-03 00:00:00,59.3,56.4,30.10,West,278,0.0,0.0,90,0.00,CLR,OVC,0.00,WeatherDisplay:10.37,2013-07-03 07:00:00,
2013-07-03 00:03:00,59.2,56.3,30.10,West,278,0.0,0.0,90,0.00,CLR,OVC,0.00,WeatherDisplay:10.37,2013-07-03 07:03:00,
2013-07-03 00:05:00,59.1,56.2,30.10,West,278,0.0,0.0,90,0.00,CLR,OVC,0.00,WeatherDisplay:10.37,2013-07-03 07:05:00,
2013-07-03 00:08:00,59.1,56.2,30.10,West,278,0.0,1.2,90,0.00,CLR,OVC,0.00,WeatherDisplay:10.37,2013-07-03 07:08:00,
2013-07-03 00:11:00,59.1,56.2,30.10,West,278,0.0,0.0,90,0.00,CLR,OVC,0.00,WeatherDisplay:10.37,2013-07-03 07:11:00,
2013-07-03 00:13:00,59.0,56.1,30.10,West,278,0.0,0.0,90,0.00,CLR,OVC,0.00,WeatherDisplay:10.37,2013-07-03 07:13:00,
2013-07-03 00:15:00,59.0,56.7,30.10,West,278,0.0,0.0,92,0.00,CLR,OVC,0.00,WeatherDisplay:10.37,2013-07-03 07:15:00,
2013-07-03 00:16:00,59.0,56.7,30.10,West,278,0.0,0.0,92,0.00,CLR,OVC,0.00,WeatherDisplay:10.37,2013-07-03 07:16:00,
2013-07-03 00:17:00,59.0,56.1,30.10,West,278,0.0,0.0,90,0.00,CLR,OVC,0.00,WeatherDisplay:10.37,2013-07-03 07:17:00,
2013-07-03 00:18:00,59.0,56.1,30.10,West,278,0.0,0.0,90,0.00,CLR,OVC,0.00,WeatherDisplay:10.37,2013-07-03 07:18:00,
2013-07-03 00:19:00,58.9,56.0,30.10,West,278,0.0,0.0,90,0.00,CLR,OVC,0.00,WeatherDisplay:10.37,2013-07-03 07:19:00,
2013-07-03 00:21:00,58.9,56.0,30.11,West,278,0.0,0.0,90,0.00,CLR,OVC,0.00,WeatherDisplay:10.37,2013-07-03 07:21:00,
2013-07-03 00:22:00,58.9,56.0,30.10,West,278,0.0,0.0,90,0.00,CLR,OVC,0.00,WeatherDisplay:10.37,2013-07-03 07:22:00,
2013-07-03 00:23:00,58.9,55.7,30.11,West,278,0.0,0.0,89,0.00,CLR,OVC,0.00,WeatherDisplay:10.37,2013-07-03 07:23:00,
2013-07-03 00:25:00,58.9,55.7,30.11,West,278,0.0,0.0,89,0.00,CLR,OVC,0.00,WeatherDisplay:10.37,2013-07-03 07:25:00,
2013-07-03 00:27:00,58.8,55.6,30.11,West,278,0.0,0.0,89,0.00,CLR,OVC,0.00,WeatherDisplay:10.37,2013-07-03 07:27:00,
2013-07-03 00:28:00,58.8,55.6,30.11,West,278,0.0,0.0,89,0.00,CLR,OVC,0.00,WeatherDisplay:10.37,2013-07-03 07:28:00,
2013-07-03 00:31:00,58.8,55.6,30.11,West,278,0.0,0.0,89,0.00,CLR,OVC,0.00,WeatherDisplay:10.37,2013-07-03 07:31:00,
2013-07-03 00:34:00,58.7,55.5,30.11,West,278,0.0,0.0,89,0.00,CLR,OVC,0.00,WeatherDisplay:10.37,2013-07-03 07:34:00,
2013-07-03 00:35:00,58.7,55.5,30.11,West,278,0.0,0.0,89,0.00,CLR,OVC,0.00,WeatherDisplay:10.37,2013-07-03 07:35:00,
2013-07-03 00:37:00,58.7,55.5,30.11,West,278,0.0,0.0,89,0.00,CLR,OVC,0.00,WeatherDisplay:10.37,2013-07-03 07:37:00,
2013-07-03 00:38:00,58.7,55.5,30.11,West,278,0.0,0.0,89,0.00,CLR,OVC,0.00,WeatherDisplay:10.37,2013-07-03 07:38:00,
2013-07-03 00:40:00,58.6,55.4,30.11,West,278,0.0,0.0,89,0.00,CLR,OVC,0.00,WeatherDisplay:10.37,2013-07-03 07:40:00,
2013-07-03 00:43:00,58.6,55.4,30.11,West,278,0.0,0.0,89,0.00,CLR,OVC,0.00,WeatherDisplay:10.37,2013-07-03 07:43:00,
2013-07-03 00:44:00,58.6,55.4,30.11,West,278,0.0,0.0,89,0.00,CLR,OVC,0.00,WeatherDisplay:10.37,2013-07-03 07:44:00,
2013-07-03 00:45:00,58.6,55.4,30.11,West,278,0.0,1.0,89,0.00,CLR,OVC,0.00,WeatherDisplay:10.37,2013-07-03 07:45:00,
2013-07-03 00:46:00,58.5,55.3,30.11,West,278,0.0,0.0,89,0.00,CLR,OVC,0.00,WeatherDisplay:10.37,2013-07-03 07:46:00,
2013-07-03 00:50:00,58.5,55.3,30.11,West,278,0.3,2.3,89,0.00,CLR,OVC,0.00,WeatherDisplay:10.37,2013-07-03 07:50:00,
2013-07-03 00:51:00,58.5,55.3,30.11,West,278,0.0,0.0,89,0.00,CLR,OVC,0.00,WeatherDisplay:10.37,2013-07-03 07:51:00,
2013-07-03 00:52:00,58.4,55.2,30.11,West,278,0.0,0.0,89,0.00,CLR,OVC,0.00,WeatherDisplay:10.37,2013-07-03 07:52:00,
2013-07-03 00:53:00,58.5,55.3,30.11,West,278,0.0,0.0,89,0.00,CLR,OVC,0.00,WeatherDisplay:10.37,2013-07-03 07:53:00,
2013-07-03 00:55:00,58.4,55.2,30.11,West,278,0.0,0.0,89,0.00,CLR,OVC,0.00,WeatherDisplay:10.37,2013-07-03 07:55:00,
2013-07-03 00:56:00,58.4,55.2,30.11,West,278,0.0,0.0,89,0.00,CLR,OVC,0.00,WeatherDisplay:10.37,2013-07-03 07:56:00,
2013-07-03 00:57:00,58.4,55.2,30.11,West,278,0.0,0.0,89,0.00,CLR,OVC,0.00,WeatherDisplay:10.37,2013-07-03 07:57:00,
2013-07-03 00:58:00,58.4,55.2,30.11,West,278,0.0,0.0,89,0.00,CLR,OVC,0.00,WeatherDisplay:10.37,2013-07-03 07:58:00,
2013-07-03 01:01:00,58.3,55.1,30.11,West,278,0.0,0.0,89,0.00,CLR,OVC,0.00,WeatherDisplay:10.37,2013-07-03 08:01:00,
2013-07-03 01:04:00,58.3,55.1,30.11,West,278,0.0,0.0,89,0.00,CLR,OVC,0.00,WeatherDisplay:10.37,2013-07-03 08:04:00,
2013-07-03 01:07:00,58.2,55.0,30.11,West,278,0.0,1.0,89,0.00,CLR,OVC,0.00,WeatherDisplay:10.37,2013-07-03 08:07:00,
2013-07-03 01:08:00,58.1,54.9,30.11,West,278,0.0,2.3,89,0.00,CLR,OVC,0.00,WeatherDisplay:10.37,2013-07-03 08:08:00,
2013-07-03 01:09:00,58.1,54.9,30.11,West,278,0.0,0.0,89,0.00,CLR,OVC,0.00,WeatherDisplay:10.37,2013-07-03 08:09:00,
2013-07-03 01:12:00,58.1,54.9,30.11,West,278,0.0,0.0,89,0.00,CLR,OVC,0.00,WeatherDisplay:10.37,2013-07-03 08:12:00,
2013-07-03 01:13:00,58.0,54.8,30.11,West,278,0.0,0.0,89,0.00,CLR,OVC,0.00,WeatherDisplay:10.37,2013-07-03 08:13:00,
2013-07-03 01:14:00,58.0,54.8,30.11,West,278,0.0,0.0,89,0.00,CLR,OVC,0.00,WeatherDisplay:10.37,2013-07-03 08:14:00,
2013-07-03 01:15:00,58.0,54.8,30.11,West,278,0.0,0.0,89,0.00,CLR,OVC,0.00,WeatherDisplay:10.37,2013-07-03 08:15:00,
2013-07-03 01:19:00,57.9,54.7,30.11,West,278,0.0,0.0,89,0.00,CLR,OVC,0.00,WeatherDisplay:10.37,2013-07-03 08:19:00,
2013-07-03 01:21:00,57.9,54.7,30.11,West,278,0.0,0.0,89,0.00,CLR,OVC,0.00,WeatherDisplay:10.37,2013-07-03 08:21:00,
2013-07-03 01:24:00,57.8,54.6,30.11,West,278,0.0,0.0,89,0.00,CLR,OVC,0.00,WeatherDisplay:10.37,2013-07-03 08:24:00,
2013-07-03 01:25:00,57.8,54.6,30.11,West,278,0.0,0.0,89,0.00,CLR,OVC,0.00,WeatherDisplay:10.37,2013-07-03 08:25:00,
2013-07-03 01:26:00,57.8,54.6,30.11,West,278,0.0,0.0,89,0.00,CLR,OVC,0.00,WeatherDisplay:10.37,2013-07-03 08:26:00,
2013-07-03 01:31:00,57.7,54.5,30.11,West,278,0.0,0.0,89,0.00,CLR,OVC,0.00,WeatherDisplay:10.37,2013-07-03 08:31:00,
2013-07-03 01:32:00,57.7,54.5,30.11,West,278,0.0,0.0,89,0.00,CLR,OVC,0.00,WeatherDisplay:10.37,2013-07-03 08:32:00,
2013-07-03 01:36:00,57.7,54.5,30.12,West,278,0.0,0.0,89,0.00,CLR,OVC,0.00,WeatherDisplay:10.37,2013-07-03 08:36:00,
2013-07-03 01:38:00,57.6,54.4,30.12,West,278,0.0,0.0,89,0.00,CLR,OVC,0.00,WeatherDisplay:10.37,2013-07-03 08:38:00,
2013-07-03 01:39:00,57.6,54.4,30.12,West,278,0.0,0.0,89,0.00,CLR,OVC,0.00,WeatherDisplay:10.37,2013-07-03 08:39:00,
2013-07-03 01:41:00,57.5,54.3,30.12,West,278,0.0,1.2,89,0.00,CLR,OVC,0.00,WeatherDisplay:10.37,2013-07-03 08:41:00,
2013-07-03 01:42:00,57.5,54.3,30.12,West,278,0.0,0.0,89,0.00,CLR,OVC,0.00,WeatherDisplay:10.37,2013-07-03 08:42:00,
2013-07-03 01:43:00,57.4,54.2,30.12,West,278,0.0,0.0,89,0.00,CLR,OVC,0.00,WeatherDisplay:10.37,2013-07-03 08:43:00,
2013-07-03 01:44:00,57.4,54.5,30.12,West,278,0.0,0.0,90,0.00,CLR,OVC,0.00,WeatherDisplay:10.37,2013-07-03 08:44:00,
2013-07-03 01:45:00,57.4,54.5,30.12,West,278,0.0,0.0,90,0.00,CLR,OVC,0.00,WeatherDisplay:10.37,2013-07-03 08:45:00,
2013-07-03 01:48:00,57.2,54.3,30.12,West,278,0.0,0.0,90,0.00,CLR,OVC,0.00,WeatherDisplay:10.37,2013-07-03 08:48:00,
2013-07-03 01:49:00,57.2,54.3,30.12,West,278,0.0,0.0,90,0.00,CLR,OVC,0.00,WeatherDisplay:10.37,2013-07-03 08:49:00,
2013-07-03 01:50:00,57.1,54.2,30.12,West,278,0.0,0.0,90,0.00,CLR,OVC,0.00,WeatherDisplay:10.37,2013-07-03 08:50:00,
2013-07-03 01:53:00,57.0,54.1,30.12,West,278,0.0,0.0,90,0.00,CLR,OVC,0.00,WeatherDisplay:10.37,2013-07-03 08:53:00,
2013-07-03 01:54:00,56.9,54.0,30.12,West,278,0.1,1.2,90,0.00,CLR,OVC,0.00,WeatherDisplay:10.37,2013-07-03 08:54:00,
2013-07-03 01:55:00,56.9,54.0,30.12,West,278,0.0,0.0,90,0.00,CLR,OVC,0.00,WeatherDisplay:10.37,2013-07-03 08:55:00,
2013-07-03 01:56:00,56.8,53.9,30.12,West,278,0.0,0.0,90,0.00,CLR,OVC,0.00,WeatherDisplay:10.37,2013-07-03 08:56:00,
2013-07-03 01:59:00,56.7,53.8,30.12,West,278,0.0,0.0,90,0.00,CLR,OVC,0.00,WeatherDisplay:10.37,2013-07-03 08:59:00,
2013-07-03 02:01:00,56.6,53.7,30.12,West,278,0.0,0.0,90,0.00,CLR,OVC,0.00,WeatherDisplay:10.37,2013-07-03 09:01:00,
2013-07-03 02:04:00,56.6,53.7,30.12,West,281,0.0,1.2,90,0.00,CLR,OVC,0.00,WeatherDisplay:10.37,2013-07-03 09:04:00,
2013-07-03 02:05:00,56.6,53.7,30.12,West,281,0.0,0.0,90,0.00,CLR,OVC,0.00,WeatherDisplay:10.37,2013-07-03 09:05:00,
2013-07-03 02:07:00,56.5,53.6,30.12,West,281,0.0,0.0,90,0.00,CLR,OVC,0.00,WeatherDisplay:10.37,2013-07-03 09:07:00,
2013-07-03 02:08:00,56.5,53.6,30.13,WNW,287,0.0,0.0,90,0.00,CLR,OVC,0.00,WeatherDisplay:10.37,2013-07-03 09:08:00,
2013-07-03 02:10:00,56.4,53.5,30.12,WNW,289,0.0,1.2,90,0.00,CLR,OVC,0.00,WeatherDisplay:10.37,2013-07-03 09:10:00,
2013-07-03 02:13:00,56.4,53.5,30.12,WNW,294,0.1,1.2,90,0.00,CLR,OVC,0.00,WeatherDisplay:10.37,2013-07-03 09:13:00,
2013-07-03 02:14:00,56.4,53.5,30.12,WNW,294,0.0,0.0,90,0.00,CLR,OVC,0.00,WeatherDisplay:10.37,2013-07-03 09:14:00,
2013-07-03 02:16:00,56.4,53.5,30.12,WNW,294,0.0,0.0,90,0.00,CLR,OVC,0.00,WeatherDisplay:10.37,2013-07-03 09:16:00,
2013-07-03 02:20:00,56.3,53.4,30.12,WNW,294,0.0,0.0,90,0.00,CLR,OVC,0.00,WeatherDisplay:10.37,2013-07-03 09:20:00,
2013-07-03 02:21:00,56.3,53.4,30.12,WNW,294,0.0,0.0,90,0.00,CLR,OVC,0.00,WeatherDisplay:10.37,2013-07-03 09:21:00,
2013-07-03 02:22:00,56.3,53.4,30.12,WNW,294,0.0,0.0,90,0.00,CLR,OVC,0.00,WeatherDisplay:10.37,2013-07-03 09:22:00,
2013-07-03 02:25:00,56.3,53.4,30.12,WNW,294,0.1,1.2,90,0.00,CLR,OVC,0.00,WeatherDisplay:10.37,2013-07-03 09:25:00,
2013-07-03 02:27:00,56.2,53.3,30.12,WNW,294,0.0,0.0,90,0.00,CLR,OVC,0.00,WeatherDisplay:10.37,2013-07-03 09:27:00,
2013-07-03 02:31:00,56.2,53.0,30.12,WNW,294,0.0,0.0,89,0.00,CLR,OVC,0.00,WeatherDisplay:10.37,2013-07-03 09:31:00,
2013-07-03 02:32:00,56.1,52.9,30.12,WNW,294,0.0,0.0,89,0.00,CLR,OVC,0.00,WeatherDisplay:10.37,2013-07-03 09:32:00,
2013-07-03 02:33:00,56.1,52.9,30.13,WNW,294,0.0,0.0,89,0.00,CLR,OVC,0.00,WeatherDisplay:10.37,2013-07-03 09:33:00,
2013-07-03 02:36:00,56.1,53.8,30.12,WNW,294,0.0,0.0,92,0.00,CLR,OVC,0.00,WeatherDisplay:10.37,2013-07-03 09:36:00,
2013-07-03 02:37:00,56.1,52.9,30.12,WNW,294,0.0,1.2,89,0.00,CLR,OVC,0.00,WeatherDisplay:10.37,2013-07-03 09:37:00,
2013-07-03 02:39:00,56.1,52.9,30.12,WNW,294,0.0,0.0,89,0.00,CLR,OVC,0.00,WeatherDisplay:10.37,2013-07-03 09:39:00,
2013-07-03 02:41:00,56.1,52.9,30.12,WNW,294,0.0,0.0,89,0.00,CLR,OVC,0.00,WeatherDisplay:10.37,2013-07-03 09:41:00,
2013-07-03 02:42:00,56.0,52.8,30.12,WNW,294,0.0,0.0,89,0.00,CLR,OVC,0.00,WeatherDisplay:10.37,2013-07-03 09:42:00,
2013-07-03 02:45:00,56.0,52.8,30.12,WNW,294,0.0,2.3,89,0.00,CLR,OVC,0.00,WeatherDisplay:10.37,2013-07-03 09:45:00,
2013-07-03 02:48:00,55.9,52.7,30.12,WNW,294,0.0,0.0,89,0.00,CLR,OVC,0.00,WeatherDisplay:10.37,2013-07-03 09:48:00,
2013-07-03 02:50:00,56.0,52.8,30.12,WNW,294,0.0,0.0,89,0.00,CLR,OVC,0.00,WeatherDisplay:10.37,2013-07-03 09:50:00,
2013-07-03 02:51:00,55.9,52.7,30.12,WNW,294,0.0,1.2,89,0.00,CLR,OVC,0.00,WeatherDisplay:10.37,2013-07-03 09:51:00,
2013-07-03 02:53:00,55.9,52.7,30.12,NW,306,0.3,0.0,89,0.00,CLR,OVC,0.00,WeatherDisplay:10.37,2013-07-03 09:53:00,
2013-07-03 02:54:00,55.9,52.7,30.12,NW,306,0.0,1.2,89,0.00,CLR,OVC,0.00,WeatherDisplay:10.37,2013-07-03 09:54:00,
2013-07-03 02:55:00,55.9,52.7,30.12,NW,306,0.0,0.0,89,0.00,CLR,OVC,0.00,WeatherDisplay:10.37,2013-07-03 09:55:00,
2013-07-03 02:56:00,55.9,52.7,30.12,NW,306,0.0,0.0,89,0.00,CLR,OVC,0.00,WeatherDisplay:10.37,2013-07-03 09:56:00,
2013-07-03 02:59:00,55.9,52.7,30.12,NW,306,0.0,0.0,89,0.00,CLR,OVC,0.00,WeatherDisplay:10.37,2013-07-03 09:59:00,
2013-07-03 03:01:00,55.8,52.6,30.12,NW,306,0.0,0.0,89,0.00,CLR,OVC,0.00,WeatherDisplay:10.37,2013-07-03 10:01:00,
2013-07-03 03:03:00,55.8,52.6,30.12,NW,306,0.0,0.0,89,0.00,CLR,OVC,0.00,WeatherDisplay:10.37,2013-07-03 10:03:00,
2013-07-03 03:04:00,55.8,52.6,30.12,NW,306,0.0,0.0,89,0.00,CLR,OVC,0.00,WeatherDisplay:10.37,2013-07-03 10:04:00,
2013-07-03 03:05:00,55.8,52.6,30.12,NW,306,0.0,1.0,89,0.00,CLR,OVC,0.00,WeatherDisplay:10.37,2013-07-03 10:05:00,
2013-07-03 03:08:00,55.7,52.5,30.12,NW,306,0.0,1.2,89,0.00,CLR,OVC,0.00,WeatherDisplay:10.37,2013-07-03 10:08:00,
2013-07-03 03:10:00,55.7,52.5,30.12,NW,306,0.0,2.0,89,0.00,CLR,OVC,0.00,WeatherDisplay:10.37,2013-07-03 10:10:00,
2013-07-03 03:13:00,55.7,52.5,30.12,NW,306,0.0,0.0,89,0.00,CLR,OVC,0.00,WeatherDisplay:10.37,2013-07-03 10:13:00,
2013-07-03 03:14:00,55.7,52.5,30.12,NW,306,0.0,0.0,89,0.00,CLR,OVC,0.00,WeatherDisplay:10.37,2013-07-03 10:14:00,
2013-07-03 03:15:00,55.6,52.4,30.12,NW,306,0.0,0.0,89,0.00,CLR,OVC,0.00,WeatherDisplay:10.37,2013-07-03 10:15:00,
2013-07-03 03:16:00,55.7,52.5,30.12,NW,306,0.0,0.0,89,0.00,CLR,OVC,0.00,WeatherDisplay:10.37,2013-07-03 10:16:00,
2013-07-03 03:19:00,55.6,52.4,30.12,NW,306,0.2,1.2,89,0.00,CLR,OVC,0.00,WeatherDisplay:10.37,2013-07-03 10:19:00,
2013-07-03 03:21:00,55.6,52.4,30.12,NW,306,0.0,0.0,89,0.00,CLR,OVC,0.00,WeatherDisplay:10.37,2013-07-03 10:21:00,
2013-07-03 03:22:00,55.6,52.4,30.12,NW,306,0.0,0.0,89,0.00,CLR,OVC,0.00,WeatherDisplay:10.37,2013-07-03 10:22:00,
2013-07-03 03:24:00,55.5,52.3,30.12,NW,306,0.0,0.0,89,0.00,CLR,OVC,0.00,WeatherDisplay:10.37,2013-07-03 10:24:00,
2013-07-03 03:25:00,55.5,52.3,30.12,NW,306,0.0,0.0,89,0.00,CLR,OVC,0.00,WeatherDisplay:10.37,2013-07-03 10:25:00,
2013-07-03 03:27:00,55.5,52.3,30.12,NW,306,0.0,0.0,89,0.00,CLR,OVC,0.00,WeatherDisplay:10.37,2013-07-03 10:27:00,
2013-07-03 03:28:00,55.5,52.3,30.12,NW,306,0.0,0.0,89,0.00,CLR,OVC,0.00,WeatherDisplay:10.37,2013-07-03 10:28:00,
2013-07-03 03:30:00,55.5,52.3,30.12,NW,306,0.0,0.0,89,0.00,CLR,OVC,0.00,WeatherDisplay:10.37,2013-07-03 10:30:00,
2013-07-03 03:32:00,55.4,52.2,30.12,NW,306,0.0,0.0,89,0.00,CLR,OVC,0.00,WeatherDisplay:10.37,2013-07-03 10:32:00,
2013-07-03 03:34:00,55.4,52.2,30.12,NW,306,0.3,2.0,89,0.00,CLR,OVC,0.00,WeatherDisplay:10.37,2013-07-03 10:34:00,
2013-07-03 03:35:00,55.4,52.2,30.12,NW,306,0.1,2.3,89,0.00,CLR,OVC,0.00,WeatherDisplay:10.37,2013-07-03 10:35:00,
2013-07-03 03:37:00,55.4,52.2,30.12,NW,306,0.0,0.0,89,0.00,CLR,OVC,0.00,WeatherDisplay:10.37,2013-07-03 10:37:00,
2013-07-03 03:39:00,55.4,52.2,30.12,NW,306,0.0,0.0,89,0.00,CLR,OVC,0.00,WeatherDisplay:10.37,2013-07-03 10:39:00,
2013-07-03 03:40:00,55.3,52.1,30.12,NW,306,0.0,0.0,89,0.00,CLR,OVC,0.00,WeatherDisplay:10.37,2013-07-03 10:40:00,
2013-07-03 03:41:00,55.4,52.2,30.12,NW,306,0.0,0.0,89,0.00,CLR,OVC,0.00,WeatherDisplay:10.37,2013-07-03 10:41:00,
2013-07-03 03:43:00,55.3,52.1,30.12,NW,306,0.1,0.0,89,0.00,CLR,OVC,0.00,WeatherDisplay:10.37,2013-07-03 10:43:00,
2013-07-03 03:45:00,55.3,52.1,30.12,NW,306,0.0,0.0,89,0.00,CLR,OVC,0.00,WeatherDisplay:10.37,2013-07-03 10:45:00,
2013-07-03 03:46:00,55.3,52.1,30.12,NW,306,0.0,0.0,89,0.00,CLR,OVC,0.00,WeatherDisplay:10.37,2013-07-03 10:46:00,
2013-07-03 03:49:00,55.3,52.1,30.12,NW,306,0.0,0.0,89,0.00,CLR,OVC,0.00,WeatherDisplay:10.37,2013-07-03 10:49:00,
2013-07-03 03:53:00,55.2,52.0,30.12,NW,306,0.1,1.2,89,0.00,CLR,OVC,0.00,WeatherDisplay:10.37,2013-07-03 10:53:00,
2013-07-03 03:54:00,55.2,52.0,30.12,NW,306,0.0,0.0,89,0.00,CLR,OVC,0.00,WeatherDisplay:10.37,2013-07-03 10:54:00,
2013-07-03 03:55:00,55.2,52.0,30.12,NW,306,0.0,0.0,89,0.00,CLR,OVC,0.00,WeatherDisplay:10.37,2013-07-03 10:55:00,
2013-07-03 03:58:00,55.3,52.1,30.13,NW,306,0.0,0.0,89,0.00,CLR,OVC,0.00,WeatherDisplay:10.37,2013-07-03 10:58:00,
2013-07-03 04:00:00,55.2,52.0,30.13,NW,306,0.0,0.0,89,0.00,CLR,OVC,0.00,WeatherDisplay:10.37,2013-07-03 11:00:00,
2013-07-03 04:03:00,55.2,52.0,30.13,NW,306,0.0,0.0,89,0.00,CLR,OVC,0.00,WeatherDisplay:10.37,2013-07-03 11:03:00,
2013-07-03 04:06:00,55.2,51.7,30.13,NW,306,0.0,0.0,88,0.00,CLR,OVC,0.00,WeatherDisplay:10.37,2013-07-03 11:06:00,
2013-07-03 04:09:00,55.1,51.6,30.13,NW,306,0.0,0.0,88,0.00,CLR,OVC,0.00,WeatherDisplay:10.37,2013-07-03 11:09:00,
2013-07-03 04:10:00,55.1,51.9,30.13,NW,306,0.0,0.0,89,0.00,CLR,OVC,0.00,WeatherDisplay:10.37,2013-07-03 11:10:00,
2013-07-03 04:11:00,55.1,51.6,30.13,NW,306,0.0,0.0,88,0.00,CLR,OVC,0.00,WeatherDisplay:10.37,2013-07-03 11:11:00,
2013-07-03 04:14:00,55.0,51.8,30.13,NW,306,0.0,0.0,89,0.00,CLR,OVC,0.00,WeatherDisplay:10.37,2013-07-03 11:14:00,
2013-07-03 04:16:00,55.0,51.8,30.13,NW,306,0.0,0.0,89,0.00,CLR,OVC,0.00,WeatherDisplay:10.37,2013-07-03 11:16:00,
2013-07-03 04:17:00,54.9,51.7,30.13,NW,306,0.0,0.0,89,0.00,CLR,OVC,0.00,WeatherDisplay:10.37,2013-07-03 11:17:00,
2013-07-03 04:19:00,54.9,51.7,30.14,NW,306,0.0,0.0,89,0.00,CLR,OVC,0.00,WeatherDisplay:10.37,2013-07-03 11:19:00,
2013-07-03 04:21:00,54.8,51.6,30.14,NW,306,0.0,0.0,89,0.00,CLR,OVC,0.00,WeatherDisplay:10.37,2013-07-03 11:21:00,
2013-07-03 04:22:00,54.8,51.6,30.14,NW,306,0.0,0.0,89,0.00,CLR,OVC,0.00,WeatherDisplay:10.37,2013-07-03 11:22:00,
2013-07-03 04:23:00,54.8,51.6,30.14,NW,306,0.0,0.0,89,0.00,CLR,OVC,0.00,WeatherDisplay:10.37,2013-07-03 11:23:00,
2013-07-03 04:25:00,54.8,51.6,30.14,NW,306,0.0,0.0,89,0.00,CLR,OVC,0.00,WeatherDisplay:10.37,2013-07-03 11:25:00,
2013-07-03 04:27:00,54.8,51.6,30.14,NW,306,0.0,0.0,89,0.00,CLR,OVC,0.00,WeatherDisplay:10.37,2013-07-03 11:27:00,
2013-07-03 04:28:00,54.7,51.5,30.14,NW,306,0.0,0.0,89,0.00,CLR,OVC,0.00,WeatherDisplay:10.37,2013-07-03 11:28:00,
2013-07-03 04:30:00,54.7,51.5,30.14,NW,306,0.0,0.0,89,0.00,CLR,OVC,0.00,WeatherDisplay:10.37,2013-07-03 11:30:00,
2013-07-03 04:32:00,54.7,51.5,30.14,NW,306,0.0,0.0,89,0.00,CLR,OVC,0.00,WeatherDisplay:10.37,2013-07-03 11:32:00,
2013-07-03 04:33:00,54.6,51.4,30.14,NW,306,0.0,0.0,89,0.00,CLR,OVC,0.00,WeatherDisplay:10.37,2013-07-03 11:33:00,
2013-07-03 04:35:00,54.6,51.4,30.14,NW,306,0.0,0.0,89,0.00,CLR,OVC,0.00,WeatherDisplay:10.37,2013-07-03 11:35:00,
2013-07-03 04:37:00,54.6,51.4,30.14,NW,306,0.0,0.0,89,0.00,CLR,OVC,0.00,WeatherDisplay:10.37,2013-07-03 11:37:00,
2013-07-03 04:39:00,54.6,51.4,30.14,NW,306,0.0,0.0,89,0.00,CLR,OVC,0.00,WeatherDisplay:10.37,2013-07-03 11:39:00,
2013-07-03 04:42:00,54.6,51.4,30.14,NW,306,0.0,0.0,89,0.00,CLR,OVC,0.00,WeatherDisplay:10.37,2013-07-03 11:42:00,
2013-07-03 04:44:00,54.5,51.3,30.14,NW,306,0.0,0.0,89,0.00,CLR,OVC,0.00,WeatherDisplay:10.37,2013-07-03 11:44:00,
2013-07-03 04:45:00,54.5,51.4,30.14,NW,306,0.0,0.0,89,0.00,CLR,OVC,0.00,WeatherDisplay:10.37,2013-07-03 11:45:00,
2013-07-03 04:46:00,54.5,51.3,30.14,NW,306,0.0,0.0,89,0.00,CLR,OVC,0.00,WeatherDisplay:10.37,2013-07-03 11:46:00,
2013-07-03 04:47:00,54.5,51.3,30.14,NW,306,0.0,0.0,89,0.00,CLR,OVC,0.00,WeatherDisplay:10.37,2013-07-03 11:47:00,
2013-07-03 04:50:00,54.5,51.3,30.14,NW,306,0.0,0.0,89,0.00,CLR,OVC,0.00,WeatherDisplay:10.37,2013-07-03 11:50:00,
2013-07-03 04:51:00,54.6,51.4,30.14,NW,306,0.0,0.0,89,0.00,CLR,OVC,0.00,WeatherDisplay:10.37,2013-07-03 11:51:00,
2013-07-03 04:52:00,54.5,51.3,30.14,NW,306,0.0,0.0,89,0.00,CLR,OVC,0.00,WeatherDisplay:10.37,2013-07-03 11:52:00,
2013-07-03 04:55:00,54.5,51.3,30.14,NW,306,0.0,0.0,89,0.00,CLR,OVC,0.00,WeatherDisplay:10.37,2013-07-03 11:55:00,
2013-07-03 04:57:00,54.5,51.3,30.15,NW,306,0.0,0.0,89,0.00,CLR,OVC,0.00,WeatherDisplay:10.37,2013-07-03 11:57:00,
2013-07-03 04:58:00,54.5,51.3,30.15,NW,306,0.0,0.0,89,0.00,CLR,OVC,0.00,WeatherDisplay:10.37,2013-07-03 11:58:00,
2013-07-03 05:01:00,54.4,51.2,30.14,NW,306,0.0,0.0,89,0.00,CLR,OVC,0.00,WeatherDisplay:10.37,2013-07-03 12:01:00,
2013-07-03 05:02:00,54.4,51.2,30.14,NW,306,0.0,0.0,89,0.00,CLR,OVC,0.00,WeatherDisplay:10.37,2013-07-03 12:02:00,
2013-07-03 05:04:00,54.4,51.2,30.14,NW,306,0.0,0.0,89,0.00,CLR,OVC,0.00,WeatherDisplay:10.37,2013-07-03 12:04:00,
2013-07-03 05:08:00,54.3,51.1,30.14,NW,306,0.0,0.0,89,0.00,CLR,OVC,0.00,WeatherDisplay:10.37,2013-07-03 12:08:00,
2013-07-03 05:09:00,54.3,51.1,30.14,NW,306,0.0,0.0,89,0.00,CLR,OVC,0.00,WeatherDisplay:10.37,2013-07-03 12:09:00,
2013-07-03 05:15:00,54.2,51.3,30.15,WNW,303,0.0,0.0,90,0.00,CLR,OVC,0.00,WeatherDisplay:10.37,2013-07-03 12:15:00,
2013-07-03 05:16:00,54.2,51.3,30.15,WNW,303,0.0,0.0,90,0.00,CLR,OVC,0.00,WeatherDisplay:10.37,2013-07-03 12:16:00,
2013-07-03 05:21:00,54.1,51.2,30.14,WNW,303,0.4,1.2,90,0.00,CLR,OVC,0.00,WeatherDisplay:10.37,2013-07-03 12:21:00,
2013-07-03 05:26:00,54.1,51.2,30.14,WNW,303,0.0,0.0,90,0.00,CLR,OVC,0.00,WeatherDisplay:10.37,2013-07-03 12:26:00,
2013-07-03 05:28:00,54.1,51.2,30.14,WNW,303,0.0,0.0,90,0.00,CLR,OVC,0.00,WeatherDisplay:10.37,2013-07-03 12:28:00,
2013-07-03 05:31:00,54.0,51.1,30.14,WNW,303,0.0,0.0,90,0.00,CLR,OVC,0.00,WeatherDisplay:10.37,2013-07-03 12:31:00,
2013-07-03 05:33:00,54.0,51.1,30.15,WNW,303,0.0,0.0,90,0.00,CLR,OVC,0.00,WeatherDisplay:10.37,2013-07-03 12:33:00,
2013-07-03 05:39:00,54.0,50.8,30.15,WNW,303,0.0,0.0,89,0.00,CLR,OVC,0.00,WeatherDisplay:10.37,2013-07-03 12:39:00,
2013-07-03 05:44:00,54.1,50.9,30.15,WNW,303,0.0,0.0,89,0.00,CLR,OVC,0.00,WeatherDisplay:10.37,2013-07-03 12:44:00,
2013-07-03 05:45:00,54.2,51.0,30.15,WNW,303,0.0,1.2,89,0.00,CLR,OVC,0.00,WeatherDisplay:10.37,2013-07-03 12:45:00,
2013-07-03 05:47:00,54.3,51.1,30.15,WNW,303,0.0,1.0,89,0.00,CLR,OVC,0.00,WeatherDisplay:10.37,2013-07-03 12:47:00,
2013-07-03 05:50:00,54.4,51.2,30.15,WNW,303,0.0,0.0,89,0.00,CLR,OVC,0.00,WeatherDisplay:10.37,2013-07-03 12:50:00,
2013-07-03 05:51:00,54.5,51.3,30.15,WNW,303,0.0,0.0,89,0.00,CLR,OVC,0.00,WeatherDisplay:10.37,2013-07-03 12:51:00,
2013-07-03 05:53:00,54.6,51.4,30.15,WNW,303,0.0,0.0,89,0.00,CLR,OVC,0.00,WeatherDisplay:10.37,2013-07-03 12:53:00,
2013-07-03 05:55:00,54.7,51.5,30.15,WNW,303,0.0,1.0,89,0.00,CLR,OVC,0.00,WeatherDisplay:10.37,2013-07-03 12:55:00,
2013-07-03 05:56:00,54.9,51.7,30.15,WNW,303,0.0,0.0,89,0.00,CLR,OVC,0.00,WeatherDisplay:10.37,2013-07-03 12:56:00,
2013-07-03 05:57:00,54.9,51.4,30.15,WNW,303,0.0,0.0,88,0.00,CLR,OVC,0.00,WeatherDisplay:10.37,2013-07-03 12:57:00,
2013-07-03 05:59:00,55.0,51.5,30.15,WNW,303,0.0,0.0,88,0.00,CLR,OVC,0.00,WeatherDisplay:10.37,2013-07-03 12:59:00,
2013-07-03 06:01:00,55.2,51.7,30.15,WNW,303,0.0,0.0,88,0.00,CLR,OVC,0.00,WeatherDisplay:10.37,2013-07-03 13:01:00,
2013-07-03 06:02:00,55.3,51.8,30.15,WNW,303,0.0,0.0,88,0.00,CLR,OVC,0.00,WeatherDisplay:10.37,2013-07-03 13:02:00,
2013-07-03 06:04:00,55.5,52.0,30.15,WNW,303,0.0,0.0,88,0.00,CLR,OVC,0.00,WeatherDisplay:10.37,2013-07-03 13:04:00,
2013-07-03 06:06:00,55.6,51.8,30.15,WNW,303,0.0,0.0,87,0.00,CLR,OVC,0.00,WeatherDisplay:10.37,2013-07-03 13:06:00,
2013-07-03 06:08:00,55.7,51.9,30.15,WNW,303,0.0,0.0,87,0.00,CLR,OVC,0.00,WeatherDisplay:10.37,2013-07-03 13:08:00,
2013-07-03 06:09:00,55.8,52.0,30.15,WNW,303,0.0,0.0,87,0.00,CLR,OVC,0.00,WeatherDisplay:10.37,2013-07-03 13:09:00,
2013-07-03 06:12:00,56.2,52.4,30.15,WNW,303,0.0,0.0,87,0.00,CLR,OVC,0.00,WeatherDisplay:10.37,2013-07-03 13:12:00,
2013-07-03 06:13:00,56.3,52.2,30.15,WNW,303,0.0,0.0,86,0.00,CLR,OVC,0.00,WeatherDisplay:10.37,2013-07-03 13:13:00,
2013-07-03 06:14:00,56.5,52.4,30.15,WNW,303,0.0,0.0,86,0.00,CLR,OVC,0.00,WeatherDisplay:10.37,2013-07-03 13:14:00,
2013-07-03 06:18:00,56.9,52.8,30.15,WNW,303,0.0,0.0,86,0.00,CLR,OVC,0.00,WeatherDisplay:10.37,2013-07-03 13:18:00,
2013-07-03 06:20:00,56.9,52.5,30.15,WNW,303,0.0,0.0,85,0.00,CLR,OVC,0.00,WeatherDisplay:10.37,2013-07-03 13:20:00,
2013-07-03 06:24:00,57.4,52.9,30.15,WNW,303,0.0,0.0,85,0.00,CLR,OVC,0.00,WeatherDisplay:10.37,2013-07-03 13:24:00,
2013-07-03 06:25:00,57.5,53.0,30.15,WNW,303,0.0,0.0,85,0.00,CLR,OVC,0.00,WeatherDisplay:10.37,2013-07-03 13:25:00,
2013-07-03 06:26:00,57.7,52.9,30.15,WNW,303,0.0,0.0,84,0.00,CLR,OVC,0.00,WeatherDisplay:10.37,2013-07-03 13:26:00,
2013-07-03 06:29:00,58.0,53.2,30.15,WNW,303,0.0,0.0,84,0.00,CLR,OVC,0.00,WeatherDisplay:10.37,2013-07-03 13:29:00,
2013-07-03 06:30:00,58.1,53.3,30.15,WNW,303,0.0,0.0,84,0.00,CLR,OVC,0.00,WeatherDisplay:10.37,2013-07-03 13:30:00,
2013-07-03 06:32:00,58.1,53.0,30.15,WNW,303,0.0,0.0,83,0.00,CLR,OVC,0.00,WeatherDisplay:10.37,2013-07-03 13:32:00,
2013-07-03 06:35:00,58.1,53.0,30.15,WNW,303,0.0,0.0,83,0.00,CLR,OVC,0.00,WeatherDisplay:10.37,2013-07-03 13:35:00,
2013-07-03 06:37:00,58.0,53.2,30.15,WNW,303,0.0,0.0,84,0.00,CLR,OVC,0.00,WeatherDisplay:10.37,2013-07-03 13:37:00,
2013-07-03 06:40:00,57.5,52.7,30.15,WNW,303,0.0,0.0,84,0.00,CLR,OVC,0.00,WeatherDisplay:10.37,2013-07-03 13:40:00,
2013-07-03 06:42:00,57.2,52.7,30.15,WNW,303,0.0,0.0,85,0.00,CLR,OVC,0.00,WeatherDisplay:10.37,2013-07-03 13:42:00,
2013-07-03 06:43:00,57.2,52.7,30.15,WNW,303,0.0,0.0,85,0.00,CLR,OVC,0.00,WeatherDisplay:10.37,2013-07-03 13:43:00,
2013-07-03 06:45:00,56.7,52.2,30.15,WNW,303,0.0,0.0,85,0.00,CLR,OVC,0.00,WeatherDisplay:10.37,2013-07-03 13:45:00,
2013-07-03 06:47:00,56.5,52.4,30.15,NW,304,0.0,0.0,86,0.00,CLR,OVC,0.00,WeatherDisplay:10.37,2013-07-03 13:47:00,
2013-07-03 06:48:00,56.4,52.3,30.15,WNW,303,0.0,0.0,86,0.00,CLR,OVC,0.00,WeatherDisplay:10.37,2013-07-03 13:48:00,
2013-07-03 06:49:00,56.3,52.5,30.15,WNW,303,0.0,0.0,87,0.00,CLR,OVC,0.00,WeatherDisplay:10.37,2013-07-03 13:49:00,
2013-07-03 06:51:00,56.1,52.6,30.15,WNW,303,0.0,0.0,88,0.00,CLR,OVC,0.00,WeatherDisplay:10.37,2013-07-03 13:51:00,
2013-07-03 06:52:00,56.1,52.9,30.15,WNW,303,0.0,0.0,89,0.00,CLR,OVC,0.00,WeatherDisplay:10.37,2013-07-03 13:52:00,
2013-07-03 06:53:00,56.0,52.5,30.15,WNW,303,0.0,0.0,88,0.00,CLR,OVC,0.00,WeatherDisplay:10.37,2013-07-03 13:53:00,
2013-07-03 06:54:00,55.9,52.4,30.15,NW,304,0.0,0.0,88,0.00,CLR,OVC,0.00,WeatherDisplay:10.37,2013-07-03 13:54:00,
2013-07-03 06:57:00,55.9,52.4,30.15,WNW,303,0.0,0.0,88,0.00,CLR,OVC,0.00,WeatherDisplay:10.37,2013-07-03 13:57:00,
2013-07-03 06:59:00,55.9,52.7,30.15,WNW,303,0.0,0.0,89,0.00,CLR,OVC,0.00,WeatherDisplay:10.37,2013-07-03 13:59:00,
2013-07-03 07:02:00,56.0,52.8,30.15,WNW,303,0.0,0.0,89,0.00,CLR,OVC,0.00,WeatherDisplay:10.37,2013-07-03 14:02:00,
2013-07-03 07:03:00,56.0,53.1,30.15,WNW,303,0.0,0.0,90,0.00,CLR,OVC,0.00,WeatherDisplay:10.37,2013-07-03 14:03:00,
2013-07-03 07:04:00,56.1,52.9,30.15,WNW,303,0.0,0.0,89,0.00,CLR,OVC,0.00,WeatherDisplay:10.37,2013-07-03 14:04:00,
2013-07-03 07:05:00,56.1,52.9,30.15,WNW,303,0.0,0.0,89,0.00,CLR,OVC,0.00,WeatherDisplay:10.37,2013-07-03 14:05:00,
2013-07-03 07:06:00,56.1,52.9,30.15,WNW,303,0.0,0.0,89,0.00,CLR,OVC,0.00,WeatherDisplay:10.37,2013-07-03 14:06:00,
2013-07-03 07:08:00,56.2,53.0,30.15,WNW,303,0.0,0.0,89,0.00,CLR,OVC,0.00,WeatherDisplay:10.37,2013-07-03 14:08:00,
2013-07-03 07:10:00,56.2,52.7,30.15,WNW,303,0.0,0.0,88,0.00,CLR,OVC,0.00,WeatherDisplay:10.37,2013-07-03 14:10:00,
2013-07-03 07:11:00,56.1,52.6,30.15,WNW,303,0.0,0.0,88,0.00,CLR,OVC,0.00,WeatherDisplay:10.37,2013-07-03 14:11:00,
2013-07-03 07:13:00,56.2,52.4,30.15,WNW,303,0.0,0.0,87,0.00,CLR,OVC,0.00,WeatherDisplay:10.37,2013-07-03 14:13:00,
2013-07-03 07:15:00,56.3,52.5,30.15,WNW,303,0.0,0.0,87,0.00,CLR,OVC,0.00,WeatherDisplay:10.37,2013-07-03 14:15:00,
2013-07-03 07:16:00,56.3,52.8,30.15,WNW,303,0.0,0.0,88,0.00,CLR,OVC,0.00,WeatherDisplay:10.37,2013-07-03 14:16:00,
2013-07-03 07:18:00,56.5,52.7,30.15,WNW,303,0.0,0.0,87,0.00,CLR,OVC,0.00,WeatherDisplay:10.37,2013-07-03 14:18:00,
2013-07-03 07:19:00,56.6,52.8,30.15,NW,304,0.0,0.0,87,0.00,CLR,OVC,0.00,WeatherDisplay:10.37,2013-07-03 14:19:00,
2013-07-03 07:20:00,56.7,52.9,30.15,WNW,303,0.0,0.0,87,0.00,CLR,OVC,0.00,WeatherDisplay:10.37,2013-07-03 14:20:00,
2013-07-03 07:22:00,56.9,53.1,30.15,WNW,303,0.0,0.0,87,0.00,CLR,OVC,0.00,WeatherDisplay:10.37,2013-07-03 14:22:00,
2013-07-03 07:24:00,57.1,53.0,30.15,WNW,303,0.0,0.0,86,0.00,CLR,OVC,0.00,WeatherDisplay:10.37,2013-07-03 14:24:00,
2013-07-03 07:25:00,57.2,52.7,30.15,WNW,303,0.0,0.0,85,0.00,CLR,OVC,0.00,WeatherDisplay:10.37,2013-07-03 14:25:00,
2013-07-03 07:27:00,57.4,52.9,30.15,NW,304,0.0,0.0,85,0.00,CLR,OVC,0.00,WeatherDisplay:10.37,2013-07-03 14:27:00,
2013-07-03 07:30:00,57.6,53.4,30.15,WNW,303,0.0,0.0,86,0.00,CLR,OVC,0.00,WeatherDisplay:10.37,2013-07-03 14:30:00,
2013-07-03 07:31:00,57.6,53.4,30.15,WNW,303,0.0,0.0,86,0.00,CLR,OVC,0.00,WeatherDisplay:10.37,2013-07-03 14:31:00,
2013-07-03 07:32:00,57.7,53.2,30.15,WNW,303,0.0,0.0,85,0.00,CLR,OVC,0.00,WeatherDisplay:10.37,2013-07-03 14:32:00,
2013-07-03 07:33:00,57.8,53.0,30.15,WNW,303,0.0,0.0,84,0.00,CLR,OVC,0.00,WeatherDisplay:10.37,2013-07-03 14:33:00,
2013-07-03 07:35:00,57.9,53.1,30.15,WNW,303,0.0,0.0,84,0.00,CLR,OVC,0.00,WeatherDisplay:10.37,2013-07-03 14:35:00,
2013-07-03 07:36:00,57.9,52.8,30.16,WNW,303,0.0,0.0,83,0.00,CLR,OVC,0.00,WeatherDisplay:10.37,2013-07-03 14:36:00,
2013-07-03 07:37:00,57.9,52.8,30.16,WNW,303,0.0,0.0,83,0.00,CLR,OVC,0.00,WeatherDisplay:10.37,2013-07-03 14:37:00,
2013-07-03 07:38:00,57.9,52.4,30.16,WNW,303,0.2,2.0,82,0.00,CLR,OVC,0.00,WeatherDisplay:10.37,2013-07-03 14:38:00,
2013-07-03 07:41:00,57.8,52.7,30.16,WNW,303,0.5,1.2,83,0.00,CLR,OVC,0.00,WeatherDisplay:10.37,2013-07-03 14:41:00,
2013-07-03 07:43:00,57.7,52.6,30.16,WNW,303,0.0,0.0,83,0.00,CLR,OVC,0.00,WeatherDisplay:10.37,2013-07-03 14:43:00,
2013-07-03 07:46:00,57.5,52.4,30.16,West,275,0.5,1.2,83,0.00,CLR,OVC,0.00,WeatherDisplay:10.37,2013-07-03 14:46:00,
2013-07-03 07:47:00,57.5,52.7,30.16,West,275,0.0,2.3,84,0.00,CLR,OVC,0.00,WeatherDisplay:10.37,2013-07-03 14:47:00,
2013-07-03 07:48:00,57.4,52.6,30.16,West,275,0.0,0.0,84,0.00,CLR,OVC,0.00,WeatherDisplay:10.37,2013-07-03 14:48:00,
2013-07-03 07:51:00,57.2,52.4,30.16,West,275,0.4,2.3,84,0.00,CLR,OVC,0.00,WeatherDisplay:10.37,2013-07-03 14:51:00,
2013-07-03 07:53:00,57.2,52.7,30.16,West,275,0.0,1.2,85,0.00,CLR,OVC,0.00,WeatherDisplay:10.37,2013-07-03 14:53:00,
2013-07-03 07:54:00,57.1,52.6,30.16,West,275,0.0,1.2,85,0.00,CLR,OVC,0.00,WeatherDisplay:10.37,2013-07-03 14:54:00,
2013-07-03 07:57:00,57.1,52.6,30.16,West,275,0.0,0.0,85,0.00,CLR,OVC,0.00,WeatherDisplay:10.37,2013-07-03 14:57:00,
2013-07-03 07:58:00,57.1,52.6,30.16,West,275,0.2,1.2,85,0.00,CLR,OVC,0.00,WeatherDisplay:10.37,2013-07-03 14:58:00,
2013-07-03 07:59:00,57.1,52.6,30.16,West,271,0.9,3.5,85,0.00,CLR,OVC,0.00,WeatherDisplay:10.37,2013-07-03 14:59:00,
2013-07-03 08:02:00,57.1,52.6,30.16,West,271,0.5,2.3,85,0.00,CLR,OVC,0.00,WeatherDisplay:10.37,2013-07-03 15:02:00,
2013-07-03 08:03:00,57.0,52.5,30.16,West,267,1.4,4.0,85,0.00,CLR,OVC,0.00,WeatherDisplay:10.37,2013-07-03 15:03:00,
2013-07-03 08:05:00,57.0,52.5,30.16,West,264,0.1,3.5,85,0.00,CLR,OVC,0.00,WeatherDisplay:10.37,2013-07-03 15:05:00,
2013-07-03 08:08:00,57.0,52.5,30.16,West,264,0.0,0.0,85,0.00,CLR,OVC,0.00,WeatherDisplay:10.37,2013-07-03 15:08:00,
2013-07-03 08:10:00,57.0,52.5,30.16,West,264,0.0,0.0,85,0.00,CLR,OVC,0.00,WeatherDisplay:10.37,2013-07-03 15:10:00,
2013-07-03 08:11:00,57.1,52.6,30.16,West,263,1.2,3.5,85,0.00,CLR,OVC,0.00,WeatherDisplay:10.37,2013-07-03 15:11:00,
2013-07-03 08:14:00,57.2,53.0,30.16,West,263,0.0,0.0,86,0.00,CLR,OVC,0.00,WeatherDisplay:10.37,2013-07-03 15:14:00,
2013-07-03 08:15:00,57.2,53.0,30.16,West,263,0.0,3.0,86,0.00,CLR,OVC,0.00,WeatherDisplay:10.37,2013-07-03 15:15:00,
2013-07-03 08:17:00,57.3,53.5,30.16,West,263,0.0,0.0,87,0.00,CLR,OVC,0.00,WeatherDisplay:10.37,2013-07-03 15:17:00,
2013-07-03 08:19:00,57.6,53.8,30.16,WSW,256,0.2,1.2,87,0.00,CLR,OVC,0.00,WeatherDisplay:10.37,2013-07-03 15:19:00,
2013-07-03 08:20:00,57.6,53.7,30.16,West,261,0.0,1.0,87,0.00,CLR,OVC,0.00,WeatherDisplay:10.37,2013-07-03 15:20:00,
2013-07-03 08:21:00,57.8,54.3,30.16,WSW,256,0.0,0.0,88,0.00,CLR,OVC,0.00,WeatherDisplay:10.37,2013-07-03 15:21:00,
2013-07-03 08:23:00,58.0,53.8,30.16,WSW,254,1.6,3.5,86,0.00,CLR,OVC,0.00,WeatherDisplay:10.37,2013-07-03 15:23:00,
2013-07-03 08:25:00,58.0,53.2,30.16,East,86,3.2,5.8,84,0.00,CLR,OVC,0.00,WeatherDisplay:10.37,2013-07-03 15:25:00,
2013-07-03 08:26:00,58.0,53.2,30.16,East,86,3.0,5.8,84,0.00,CLR,OVC,0.00,WeatherDisplay:10.37,2013-07-03 15:26:00,
2013-07-03 08:28:00,58.0,53.2,30.16,East,86,0.4,1.2,84,0.00,CLR,OVC,0.00,WeatherDisplay:10.37,2013-07-03 15:28:00,
2013-07-03 08:32:00,58.3,54.1,30.16,East,87,0.0,0.0,86,0.00,CLR,OVC,0.00,WeatherDisplay:10.37,2013-07-03 15:32:00,
2013-07-03 08:33:00,58.4,54.2,30.16,East,87,0.0,0.0,86,0.00,CLR,OVC,0.00,WeatherDisplay:10.37,2013-07-03 15:33:00,
2013-07-03 08:34:00,58.4,53.9,30.16,ESE,123,0.6,2.0,85,0.00,CLR,OVC,0.00,WeatherDisplay:10.37,2013-07-03 15:34:00,
2013-07-03 08:38:00,58.9,54.1,30.16,ESE,113,2.3,3.5,84,0.00,CLR,OVC,0.00,WeatherDisplay:10.37,2013-07-03 15:38:00,
2013-07-03 08:39:00,58.9,54.4,30.16,ESE,113,0.6,3.5,85,0.00,CLR,OVC,0.00,WeatherDisplay:10.37,2013-07-03 15:39:00,
2013-07-03 08:41:00,58.7,53.5,30.15,ESE,117,1.9,4.6,83,0.00,CLR,OVC,0.00,WeatherDisplay:10.37,2013-07-03 15:41:00,
2013-07-03 08:43:00,58.6,53.5,30.16,ESE,117,0.3,3.5,83,0.00,CLR,OVC,0.00,WeatherDisplay:10.37,2013-07-03 15:43:00,
2013-07-03 08:44:00,58.6,53.5,30.15,ESE,117,0.0,1.2,83,0.00,CLR,OVC,0.00,WeatherDisplay:10.37,2013-07-03 15:44:00,
2013-07-03 08:47:00,58.7,53.5,30.15,ESE,111,1.3,3.5,83,0.00,CLR,OVC,0.00,WeatherDisplay:10.37,2013-07-03 15:47:00,
2013-07-03 08:49:00,58.9,54.4,30.15,ESE,111,0.0,1.2,85,0.00,CLR,OVC,0.00,WeatherDisplay:10.37,2013-07-03 15:49:00,
2013-07-03 08:50:00,58.8,54.3,30.15,ESE,115,0.0,4.0,85,0.00,CLR,OVC,0.00,WeatherDisplay:10.37,2013-07-03 15:50:00,
2013-07-03 08:52:00,59.1,54.3,30.15,ESE,111,0.0,0.0,84,0.00,CLR,OVC,0.00,WeatherDisplay:10.37,2013-07-03 15:52:00,
2013-07-03 08:53:00,59.1,54.3,30.16,ESE,111,0.0,0.0,84,0.00,CLR,OVC,0.00,WeatherDisplay:10.37,2013-07-03 15:53:00,
2013-07-03 08:54:00,59.3,54.8,30.16,East,98,0.7,2.0,85,0.00,CLR,OVC,0.00,WeatherDisplay:10.37,2013-07-03 15:54:00,
2013-07-03 08:57:00,59.4,54.6,30.16,East,98,0.0,1.2,84,0.00,CLR,OVC,0.00,WeatherDisplay:10.37,2013-07-03 15:57:00,
2013-07-03 08:58:00,59.4,53.9,30.16,East,98,0.9,2.0,82,0.00,CLR,OVC,0.00,WeatherDisplay:10.37,2013-07-03 15:58:00,
2013-07-03 09:00:00,59.6,54.4,30.16,East,98,0.0,0.0,83,0.00,CLR,OVC,0.00,WeatherDisplay:10.37,2013-07-03 16:00:00,
2013-07-03 09:03:00,59.8,54.3,30.16,East,98,0.1,1.2,82,0.00,CLR,OVC,0.00,WeatherDisplay:10.37,2013-07-03 16:03:00,
2013-07-03 09:04:00,59.9,54.4,30.16,East,98,0.1,1.2,82,0.00,CLR,OVC,0.00,WeatherDisplay:10.37,2013-07-03 16:04:00,
2013-07-03 09:05:00,60.0,54.8,30.16,East,100,0.1,1.2,83,0.00,CLR,OVC,0.00,WeatherDisplay:10.37,2013-07-03 16:05:00,
2013-07-03 09:09:00,60.2,54.3,30.16,SE,130,2.9,3.5,81,0.00,CLR,OVC,0.00,WeatherDisplay:10.37,2013-07-03 16:09:00,
2013-07-03 09:10:00,60.1,54.2,30.16,SE,130,0.8,4.6,81,0.00,CLR,OVC,0.00,WeatherDisplay:10.37,2013-07-03 16:10:00,
2013-07-03 09:11:00,60.1,54.2,30.16,SE,130,0.1,1.2,81,0.00,CLR,OVC,0.00,WeatherDisplay:10.37,2013-07-03 16:11:00,
2013-07-03 09:14:00,60.2,54.3,30.15,SE,130,0.1,2.3,81,0.00,CLR,OVC,0.00,WeatherDisplay:10.37,2013-07-03 16:14:00,
2013-07-03 09:15:00,60.2,54.3,30.16,SE,130,0.1,2.3,81,0.00,CLR,OVC,0.00,WeatherDisplay:10.37,2013-07-03 16:15:00,
2013-07-03 09:16:00,60.3,54.8,30.15,SE,141,0.3,2.3,82,0.00,CLR,OVC,0.00,WeatherDisplay:10.37,2013-07-03 16:16:00,
2013-07-03 09:20:00,60.4,54.2,30.16,SE,136,0.0,4.0,80,0.00,CLR,OVC,0.00,WeatherDisplay:10.37,2013-07-03 16:20:00,
2013-07-03 09:22:00,60.5,54.6,30.16,ESE,123,0.1,1.0,81,0.00,CLR,OVC,0.00,WeatherDisplay:10.37,2013-07-03 16:22:00,
2013-07-03 09:25:00,60.9,54.7,30.15,NNE,25,0.0,4.6,80,0.00,CLR,OVC,0.00,WeatherDisplay:10.37,2013-07-03 16:25:00,
2013-07-03 09:28:00,61.0,54.1,30.15,NNE,25,0.0,0.0,78,0.00,CLR,OVC,0.00,WeatherDisplay:10.37,2013-07-03 16:28:00,
2013-07-03 09:30:00,61.1,54.5,30.15,East,93,0.4,4.0,79,0.00,CLR,OVC,0.00,WeatherDisplay:10.37,2013-07-03 16:30:00,
2013-07-03 09:33:00,61.5,54.9,30.15,East,98,0.0,0.0,79,0.00,CLR,OVC,0.00,WeatherDisplay:10.37,2013-07-03 16:33:00,
2013-07-03 09:34:00,61.6,55.7,30.15,East,100,0.0,1.2,81,0.00,CLR,OVC,0.00,WeatherDisplay:10.37,2013-07-03 16:34:00,
2013-07-03 09:35:00,61.7,55.1,30.15,ESE,113,0.0,1.2,79,0.00,CLR,OVC,0.00,WeatherDisplay:10.37,2013-07-03 16:35:00,
2013-07-03 09:36:00,61.8,55.2,30.15,ESE,113,0.0,1.2,79,0.00,CLR,OVC,0.00,WeatherDisplay:10.37,2013-07-03 16:36:00,
2013-07-03 09:39:00,61.9,55.0,30.15,SSW,201,0.3,3.5,78,0.00,CLR,OVC,0.00,WeatherDisplay:10.37,2013-07-03 16:39:00,
2013-07-03 09:41:00,61.8,55.2,30.15,SSW,198,1.0,3.5,79,0.00,CLR,OVC,0.00,WeatherDisplay:10.37,2013-07-03 16:41:00,
2013-07-03 09:43:00,61.7,54.4,30.15,SSW,196,1.8,3.5,77,0.00,CLR,OVC,0.00,WeatherDisplay:10.37,2013-07-03 16:43:00,
2013-07-03 09:44:00,61.7,54.8,30.15,SSW,195,1.0,3.5,78,0.00,CLR,OVC,0.00,WeatherDisplay:10.37,2013-07-03 16:44:00,
2013-07-03 09:45:00,61.7,54.8,30.15,South,184,1.6,3.5,78,0.00,CLR,OVC,0.00,WeatherDisplay:10.37,2013-07-03 16:45:00,
2013-07-03 09:46:00,61.7,55.1,30.15,South,181,0.8,3.5,79,0.00,CLR,OVC,0.00,WeatherDisplay:10.37,2013-07-03 16:46:00,
2013-07-03 09:48:00,61.8,54.9,30.15,SSE,157,0.6,3.5,78,0.00,CLR,OVC,0.00,WeatherDisplay:10.37,2013-07-03 16:48:00,
2013-07-03 09:49:00,61.8,54.9,30.15,SSE,157,0.0,1.2,78,0.00,CLR,OVC,0.00,WeatherDisplay:10.37,2013-07-03 16:49:00,
2013-07-03 09:50:00,61.8,55.2,30.15,SSE,157,0.1,2.0,79,0.00,CLR,OVC,0.00,WeatherDisplay:10.37,2013-07-03 16:50:00,
2013-07-03 09:51:00,61.8,54.9,30.15,SSE,159,1.9,3.5,78,0.00,CLR,OVC,0.00,WeatherDisplay:10.37,2013-07-03 16:51:00,
2013-07-03 09:54:00,61.9,55.0,30.15,SSE,159,0.9,1.2,78,0.00,CLR,OVC,0.00,WeatherDisplay:10.37,2013-07-03 16:54:00,
2013-07-03 09:55:00,62.0,55.4,30.15,SSE,159,0.1,1.2,79,0.00,CLR,OVC,0.00,WeatherDisplay:10.37,2013-07-03 16:55:00,
2013-07-03 09:56:00,62.0,55.4,30.15,SSE,159,0.5,2.3,79,0.00,CLR,OVC,0.00,WeatherDisplay:10.37,2013-07-03 16:56:00,
2013-07-03 09:57:00,62.1,55.2,30.15,SSE,159,0.1,1.2,78,0.00,CLR,OVC,0.00,WeatherDisplay:10.37,2013-07-03 16:57:00,
2013-07-03 09:59:00,62.1,55.2,30.15,SSE,159,0.0,0.0,78,0.00,CLR,OVC,0.00,WeatherDisplay:10.37,2013-07-03 16:59:00,
2013-07-03 10:01:00,62.3,55.7,30.15,SSE,159,0.1,0.0,79,0.00,CLR,OVC,0.00,WeatherDisplay:10.37,2013-07-03 17:01:00,
2013-07-03 10:02:00,62.4,56.1,30.15,SSE,159,0.2,1.2,80,0.00,CLR,OVC,0.00,WeatherDisplay:10.37,2013-07-03 17:02:00,
2013-07-03 10:04:00,62.8,55.5,30.15,South,174,1.5,3.5,77,0.00,CLR,OVC,0.00,WeatherDisplay:10.37,2013-07-03 17:04:00,
2013-07-03 10:06:00,62.9,55.6,30.15,South,174,0.0,1.2,77,0.00,CLR,OVC,0.00,WeatherDisplay:10.37,2013-07-03 17:06:00,
2013-07-03 10:07:00,63.1,56.1,30.15,East,96,1.2,6.0,78,0.00,CLR,OVC,0.00,WeatherDisplay:10.37,2013-07-03 17:07:00,
2013-07-03 10:09:00,63.1,55.0,30.15,NE,47,1.2,6.9,75,0.00,CLR,OVC,0.00,WeatherDisplay:10.37,2013-07-03 17:09:00,
2013-07-03 10:11:00,63.0,54.9,30.15,ESE,107,4.0,4.6,75,0.00,CLR,OVC,0.00,WeatherDisplay:10.37,2013-07-03 17:11:00,
2013-07-03 10:13:00,62.9,54.5,30.15,ESE,107,0.5,4.6,74,0.00,CLR,OVC,0.00,WeatherDisplay:10.37,2013-07-03 17:13:00,
2013-07-03 10:14:00,62.8,54.4,30.15,SE,128,1.2,1.2,74,0.00,CLR,OVC,0.00,WeatherDisplay:10.37,2013-07-03 17:14:00,
2013-07-03 10:15:00,62.8,54.8,30.15,SE,128,0.2,3.5,75,0.00,CLR,OVC,0.00,WeatherDisplay:10.37,2013-07-03 17:15:00,
2013-07-03 10:16:00,62.8,54.8,30.15,SE,128,0.1,1.2,75,0.00,CLR,OVC,0.00,WeatherDisplay:10.37,2013-07-03 17:16:00,
2013-07-03 10:18:00,62.9,54.9,30.15,South,169,1.7,3.5,75,0.00,CLR,OVC,0.00,WeatherDisplay:10.37,2013-07-03 17:18:00,
2013-07-03 10:20:00,63.2,55.5,30.15,South,169,1.0,2.3,76,0.00,CLR,OVC,0.00,WeatherDisplay:10.37,2013-07-03 17:20:00,
2013-07-03 10:21:00,63.3,56.0,30.15,South,169,0.3,2.3,77,0.00,CLR,OVC,0.00,WeatherDisplay:10.37,2013-07-03 17:21:00,
2013-07-03 10:23:00,63.7,56.0,30.15,SSE,167,0.2,2.3,76,0.00,CLR,OVC,0.00,WeatherDisplay:10.37,2013-07-03 17:23:00,
2013-07-03 10:25:00,64.0,55.9,30.15,ENE,65,0.0,4.6,75,0.00,CLR,OVC,0.00,WeatherDisplay:10.37,2013-07-03 17:25:00,
2013-07-03 10:26:00,64.2,56.5,30.15,ENE,65,0.0,0.0,76,0.00,CLR,OVC,0.00,WeatherDisplay:10.37,2013-07-03 17:26:00,
2013-07-03 10:29:00,64.5,55.7,30.15,ENE,57,0.2,2.3,73,0.00,CLR,OVC,0.00,WeatherDisplay:10.37,2013-07-03 17:29:00,
2013-07-03 10:31:00,64.7,55.8,30.15,ENE,58,0.1,1.2,73,0.00,CLR,OVC,0.00,WeatherDisplay:10.37,2013-07-03 17:31:00,
2013-07-03 10:33:00,64.9,56.0,30.15,NE,48,0.1,2.0,73,0.00,CLR,OVC,0.00,WeatherDisplay:10.37,2013-07-03 17:33:00,
2013-07-03 10:34:00,64.9,56.0,30.15,NE,38,0.5,2.3,73,0.00,CLR,OVC,0.00,WeatherDisplay:10.37,2013-07-03 17:34:00,
2013-07-03 10:36:00,65.1,56.2,30.15,NE,40,0.0,0.0,73,0.00,CLR,OVC,0.00,WeatherDisplay:10.37,2013-07-03 17:36:00,
2013-07-03 10:39:00,65.4,56.5,30.15,NE,39,1.4,3.5,73,0.00,CLR,OVC,0.00,WeatherDisplay:10.37,2013-07-03 17:39:00,
2013-07-03 10:40:00,65.4,55.7,30.14,NE,39,1.3,3.5,71,0.00,CLR,OVC,0.00,WeatherDisplay:10.37,2013-07-03 17:40:00,
2013-07-03 10:41:00,65.6,56.3,30.14,NE,39,0.9,6.0,72,0.00,CLR,OVC,0.00,WeatherDisplay:10.37,2013-07-03 17:41:00,
2013-07-03 10:44:00,65.8,56.9,30.14,SE,144,0.0,1.2,73,0.00,CLR,OVC,0.00,WeatherDisplay:10.37,2013-07-03 17:44:00,
2013-07-03 10:45:00,65.9,55.8,30.15,NE,53,0.4,2.3,70,0.00,CLR,OVC,0.00,WeatherDisplay:10.37,2013-07-03 17:45:00,
2013-07-03 10:47:00,66.0,56.3,30.14,NE,53,0.2,3.5,71,0.00,CLR,OVC,0.00,WeatherDisplay:10.37,2013-07-03 17:47:00,
2013-07-03 10:49:00,66.2,57.3,30.15,NNE,24,0.4,1.2,73,0.00,CLR,OVC,0.00,WeatherDisplay:10.37,2013-07-03 17:49:00,
2013-07-03 10:50:00,66.2,56.1,30.14,NNE,24,1.0,3.5,70,0.00,CLR,OVC,0.00,WeatherDisplay:10.37,2013-07-03 17:50:00,
2013-07-03 10:53:00,66.2,56.1,30.14,SW,233,0.3,3.5,70,0.00,CLR,OVC,0.00,WeatherDisplay:10.37,2013-07-03 17:53:00,
2013-07-03 10:55:00,66.3,57.4,30.14,SW,233,0.0,0.0,73,0.00,CLR,OVC,0.00,WeatherDisplay:10.37,2013-07-03 17:55:00,
2013-07-03 10:57:00,66.5,57.2,30.14,North,5,0.7,0.0,72,0.00,CLR,OVC,0.00,WeatherDisplay:10.37,2013-07-03 17:57:00,
2013-07-03 11:00:00,66.9,57.6,30.14,South,189,1.5,3.5,72,0.00,CLR,OVC,0.00,WeatherDisplay:10.37,2013-07-03 18:00:00,
2013-07-03 11:01:00,67.1,58.2,30.14,South,189,0.2,3.5,73,0.00,CLR,OVC,0.00,WeatherDisplay:10.37,2013-07-03 18:01:00,
2013-07-03 11:02:00,67.2,57.1,30.14,SSW,201,0.3,1.2,70,0.00,CLR,OVC,0.00,WeatherDisplay:10.37,2013-07-03 18:02:00,
2013-07-03 11:05:00,67.6,57.1,30.14,SSW,202,0.0,2.3,69,0.00,CLR,OVC,0.00,WeatherDisplay:10.37,2013-07-03 18:05:00,
2013-07-03 11:06:00,67.6,57.5,30.14,SSW,202,0.1,1.2,70,0.00,CLR,OVC,0.00,WeatherDisplay:10.37,2013-07-03 18:06:00,
2013-07-03 11:07:00,67.7,57.6,30.14,SSW,201,0.1,1.2,70,0.00,CLR,OVC,0.00,WeatherDisplay:10.37,2013-07-03 18:07:00,
2013-07-03 11:11:00,68.0,56.6,30.14,NNW,331,0.1,1.2,67,0.00,CLR,OVC,0.00,WeatherDisplay:10.37,2013-07-03 18:11:00,
2013-07-03 11:13:00,68.1,57.1,30.14,North,360,0.0,1.0,68,0.00,CLR,OVC,0.00,WeatherDisplay:10.37,2013-07-03 18:13:00,
2013-07-03 11:17:00,68.3,58.1,30.14,North,360,0.7,1.2,70,0.00,CLR,OVC,0.00,WeatherDisplay:10.37,2013-07-03 18:17:00,
2013-07-03 11:18:00,68.4,57.4,30.14,West,263,1.6,3.5,68,0.00,CLR,OVC,0.00,WeatherDisplay:10.37,2013-07-03 18:18:00,
2013-07-03 11:22:00,68.4,58.2,30.14,SW,232,0.0,2.0,70,0.00,CLR,OVC,0.00,WeatherDisplay:10.37,2013-07-03 18:22:00,
2013-07-03 11:26:00,68.5,57.5,30.14,NNW,343,0.0,0.0,68,0.00,CLR,OVC,0.00,WeatherDisplay:10.37,2013-07-03 18:26:00,
2013-07-03 11:27:00,68.6,59.2,30.14,NE,40,0.0,0.0,72,0.00,CLR,OVC,0.00,WeatherDisplay:10.37,2013-07-03 18:27:00,
2013-07-03 11:28:00,68.6,58.0,30.15,NE,36,0.0,0.0,69,0.00,CLR,OVC,0.00,WeatherDisplay:10.37,2013-07-03 18:28:00,
2013-07-03 11:29:00,68.8,58.2,30.14,NNW,348,0.8,1.2,69,0.00,CLR,OVC,0.00,WeatherDisplay:10.37,2013-07-03 18:29:00,
2013-07-03 11:31:00,69.0,58.8,30.14,NNW,348,0.0,1.2,70,0.00,CLR,OVC,0.00,WeatherDisplay:10.37,2013-07-03 18:31:00,
2013-07-03 11:32:00,69.2,58.2,30.14,WNW,288,0.8,2.3,68,0.00,CLR,OVC,0.00,WeatherDisplay:10.37,2013-07-03 18:32:00,
2013-07-03 11:34:00,69.4,59.2,30.15,WNW,292,0.2,1.2,70,0.00,CLR,OVC,0.00,WeatherDisplay:10.37,2013-07-03 18:34:00,
2013-07-03 11:35:00,69.4,59.2,30.15,WNW,294,0.3,1.2,70,0.00,CLR,OVC,0.00,WeatherDisplay:10.37,2013-07-03 18:35:00,
2013-07-03 11:36:00,69.5,59.3,30.14,WNW,294,0.1,1.2,70,0.00,CLR,OVC,0.00,WeatherDisplay:10.37,2013-07-03 18:36:00,
2013-07-03 11:37:00,69.5,58.5,30.15,WSW,251,2.4,4.6,68,0.00,CLR,OVC,0.00,WeatherDisplay:10.37,2013-07-03 18:37:00,
2013-07-03 11:40:00,69.5,57.2,30.14,WSW,249,2.0,2.3,65,0.00,CLR,OVC,0.00,WeatherDisplay:10.37,2013-07-03 18:40:00,
2013-07-03 11:42:00,69.1,57.7,30.15,WSW,242,0.5,3.5,67,0.00,CLR,OVC,0.00,WeatherDisplay:10.37,2013-07-03 18:42:00,
2013-07-03 11:45:00,69.1,59.7,30.15,WSW,245,1.0,4.0,72,0.00,CLR,OVC,0.00,WeatherDisplay:10.37,2013-07-03 18:45:00,
2013-07-03 11:47:00,69.4,58.0,30.15,SW,230,1.4,3.5,67,0.00,CLR,OVC,0.00,WeatherDisplay:10.37,2013-07-03 18:47:00,
2013-07-03 11:50:00,69.5,58.9,30.15,WSW,237,0.0,3.0,69,0.00,CLR,OVC,0.00,WeatherDisplay:10.37,2013-07-03 18:50:00,
2013-07-03 11:51:00,69.7,59.1,30.15,SW,230,0.7,2.0,69,0.00,CLR,OVC,0.00,WeatherDisplay:10.37,2013-07-03 18:51:00,
2013-07-03 11:53:00,69.9,57.6,30.15,SW,230,1.6,3.5,65,0.00,CLR,OVC,0.00,WeatherDisplay:10.37,2013-07-03 18:53:00,
2013-07-03 11:55:00,69.9,57.6,30.15,WSW,246,2.8,8.1,65,0.00,CLR,OVC,0.00,WeatherDisplay:10.37,2013-07-03 18:55:00,
2013-07-03 11:57:00,69.9,59.3,30.15,WSW,248,0.8,1.2,69,0.00,CLR,OVC,0.00,WeatherDisplay:10.37,2013-07-03 18:57:00,
2013-07-03 11:58:00,69.8,57.5,30.15,WSW,242,3.8,5.8,65,0.00,CLR,OVC,0.00,WeatherDisplay:10.37,2013-07-03 18:58:00,
2013-07-03 12:00:00,69.6,58.2,30.15,WSW,245,2.1,4.6,67,0.00,CLR,OVC,0.00,WeatherDisplay:10.37,2013-07-03 19:00:00,
2013-07-03 12:02:00,69.2,57.4,30.15,WSW,243,2.6,4.0,66,0.00,CLR,OVC,0.00,WeatherDisplay:10.37,2013-07-03 19:02:00,
2013-07-03 12:04:00,69.0,57.6,30.15,WSW,243,0.3,2.3,67,0.00,CLR,OVC,0.00,WeatherDisplay:10.37,2013-07-03 19:04:00,
2013-07-03 12:05:00,69.1,58.5,30.14,WSW,243,0.2,1.2,69,0.00,CLR,OVC,0.00,WeatherDisplay:10.37,2013-07-03 19:05:00,
2013-07-03 12:08:00,69.1,58.9,30.15,WSW,243,1.0,3.5,70,0.00,CLR,OVC,0.00,WeatherDisplay:10.37,2013-07-03 19:08:00,
2013-07-03 12:09:00,69.2,59.4,30.15,WSW,243,0.3,3.0,71,0.00,CLR,OVC,0.00,WeatherDisplay:10.37,2013-07-03 19:09:00,
2013-07-03 12:10:00,69.1,58.1,30.15,WSW,248,2.0,5.8,68,0.00,CLR,OVC,0.00,WeatherDisplay:10.37,2013-07-03 19:10:00,
2013-07-03 12:11:00,69.1,58.1,30.15,WSW,248,1.5,3.5,68,0.00,CLR,OVC,0.00,WeatherDisplay:10.37,2013-07-03 19:11:00,
2013-07-03 12:14:00,69.1,57.7,30.14,WSW,249,1.7,4.6,67,0.00,CLR,OVC,0.00,WeatherDisplay:10.37,2013-07-03 19:14:00,
2013-07-03 12:15:00,69.1,58.9,30.15,WSW,249,0.7,4.0,70,0.00,CLR,OVC,0.00,WeatherDisplay:10.37,2013-07-03 19:15:00,
2013-07-03 12:16:00,69.2,58.6,30.14,WSW,250,2.3,3.5,69,0.00,CLR,OVC,0.00,WeatherDisplay:10.37,2013-07-03 19:16:00,
2013-07-03 12:19:00,69.6,59.0,30.15,WSW,250,0.0,0.0,69,0.00,CLR,OVC,0.00,WeatherDisplay:10.37,2013-07-03 19:19:00,
2013-07-03 12:20:00,69.8,59.6,30.15,WSW,250,0.2,0.0,70,0.00,CLR,OVC,0.00,WeatherDisplay:10.37,2013-07-03 19:20:00,
2013-07-03 12:21:00,69.9,60.1,30.14,WSW,250,0.7,2.3,71,0.00,CLR,OVC,0.00,WeatherDisplay:10.37,2013-07-03 19:21:00,
2013-07-03 12:22:00,70.0,58.1,30.14,WSW,250,0.1,2.3,66,0.00,CLR,OVC,0.00,WeatherDisplay:10.37,2013-07-03 19:22:00,
2013-07-03 12:25:00,70.3,58.8,30.14,WSW,250,0.0,0.0,67,0.00,CLR,OVC,0.00,WeatherDisplay:10.37,2013-07-03 19:25:00,
2013-07-03 12:26:00,70.5,59.0,30.15,WSW,250,0.0,0.0,67,0.00,CLR,OVC,0.00,WeatherDisplay:10.37,2013-07-03 19:26:00,
2013-07-03 12:27:00,70.6,59.1,30.14,WSW,250,0.6,3.5,67,0.00,CLR,OVC,0.00,WeatherDisplay:10.37,2013-07-03 19:27:00,
2013-07-03 12:30:00,70.5,58.6,30.15,WSW,242,1.9,4.6,66,0.00,CLR,OVC,0.00,WeatherDisplay:10.37,2013-07-03 19:30:00,
2013-07-03 12:32:00,70.4,60.5,30.14,WSW,242,0.5,2.3,71,0.00,CLR,OVC,0.00,WeatherDisplay:10.37,2013-07-03 19:32:00,
2013-07-03 12:36:00,70.6,59.5,30.14,WSW,242,1.7,3.5,68,0.00,CLR,OVC,0.00,WeatherDisplay:10.37,2013-07-03 19:36:00,
2013-07-03 12:37:00,70.5,59.4,30.14,WSW,242,0.0,1.2,68,0.00,CLR,OVC,0.00,WeatherDisplay:10.37,2013-07-03 19:37:00,
2013-07-03 12:38:00,70.5,58.6,30.14,WSW,242,0.0,1.2,66,0.00,CLR,OVC,0.00,WeatherDisplay:10.37,2013-07-03 19:38:00,
2013-07-03 12:41:00,70.6,59.5,30.14,WSW,242,0.0,1.2,68,0.00,CLR,OVC,0.00,WeatherDisplay:10.37,2013-07-03 19:41:00,
2013-07-03 12:43:00,70.8,59.3,30.14,WSW,242,0.8,2.3,67,0.00,CLR,OVC,0.00,WeatherDisplay:10.37,2013-07-03 19:43:00,
2013-07-03 12:44:00,70.9,59.0,30.14,WSW,242,1.1,4.0,66,0.00,CLR,OVC,0.00,WeatherDisplay:10.37,2013-07-03 19:44:00,
2013-07-03 12:46:00,71.0,61.1,30.14,WSW,242,0.2,2.0,71,0.00,CLR,OVC,0.00,WeatherDisplay:10.37,2013-07-03 19:46:00,
2013-07-03 12:48:00,71.1,59.2,30.14,WSW,242,1.2,3.5,66,0.00,CLR,OVC,0.00,WeatherDisplay:10.37,2013-07-03 19:48:00,
2013-07-03 12:50:00,71.2,59.7,30.14,WSW,242,0.0,0.0,67,0.00,CLR,OVC,0.00,WeatherDisplay:10.37,2013-07-03 19:50:00,
2013-07-03 12:52:00,71.4,60.7,30.14,WSW,242,0.1,1.2,69,0.00,CLR,OVC,0.00,WeatherDisplay:10.37,2013-07-03 19:52:00,
2013-07-03 12:54:00,71.5,58.7,30.14,WSW,242,0.1,3.5,64,0.00,CLR,OVC,0.00,WeatherDisplay:10.37,2013-07-03 19:54:00,
2013-07-03 12:55:00,71.6,60.1,30.14,WSW,242,0.0,0.0,67,0.00,CLR,OVC,0.00,WeatherDisplay:10.37,2013-07-03 19:55:00,
2013-07-03 12:59:00,71.8,59.8,30.14,WSW,242,0.2,1.2,66,0.00,CLR,OVC,0.00,WeatherDisplay:10.37,2013-07-03 19:59:00,
2013-07-03 13:00:00,71.8,61.1,30.14,WSW,242,0.0,4.0,69,0.00,CLR,OVC,0.00,WeatherDisplay:10.37,2013-07-03 20:00:00,
2013-07-03 13:04:00,72.0,60.0,30.14,WSW,242,0.3,2.3,66,0.00,CLR,OVC,0.00,WeatherDisplay:10.37,2013-07-03 20:04:00,
2013-07-03 13:05:00,72.0,60.0,30.14,WSW,242,0.2,1.2,66,0.00,CLR,OVC,0.00,WeatherDisplay:10.37,2013-07-03 20:05:00,
2013-07-03 13:10:00,71.8,60.2,30.14,WSW,242,0.0,0.0,67,0.00,CLR,OVC,0.00,WeatherDisplay:10.37,2013-07-03 20:10:00,
2013-07-03 13:11:00,71.9,60.3,30.14,WSW,242,0.3,3.0,67,0.00,CLR,OVC,0.00,WeatherDisplay:10.37,2013-07-03 20:11:00,
2013-07-03 13:16:00,72.0,59.6,30.14,WSW,250,0.0,0.0,65,0.00,CLR,OVC,0.00,WeatherDisplay:10.37,2013-07-03 20:16:00,
2013-07-03 13:17:00,72.1,60.1,30.14,WSW,250,0.0,0.0,66,0.00,CLR,OVC,0.00,WeatherDisplay:10.37,2013-07-03 20:17:00,
2013-07-03 13:20:00,72.3,59.4,30.14,WSW,250,0.0,1.0,64,0.00,CLR,OVC,0.00,WeatherDisplay:10.37,2013-07-03 20:20:00,
2013-07-03 13:21:00,72.4,59.5,30.14,WSW,250,1.0,3.0,64,0.00,CLR,OVC,0.00,WeatherDisplay:10.37,2013-07-03 20:21:00,
2013-07-03 13:22:00,72.4,60.0,30.14,WSW,250,1.3,3.5,65,0.00,CLR,OVC,0.00,WeatherDisplay:10.37,2013-07-03 20:22:00,
2013-07-03 13:23:00,72.4,60.0,30.14,WSW,250,1.1,3.5,65,0.00,CLR,OVC,0.00,WeatherDisplay:10.37,2013-07-03 20:23:00,
2013-07-03 13:25:00,72.5,61.7,30.14,WSW,250,0.0,1.2,69,0.00,CLR,OVC,0.00,WeatherDisplay:10.37,2013-07-03 20:25:00,
2013-07-03 13:27:00,72.8,60.8,30.14,WSW,250,0.1,1.2,66,0.00,CLR,OVC,0.00,WeatherDisplay:10.37,2013-07-03 20:27:00,
2013-07-03 13:28:00,72.8,59.9,30.14,WSW,250,0.0,1.2,64,0.00,CLR,OVC,0.00,WeatherDisplay:10.37,2013-07-03 20:28:00,
2013-07-03 13:30:00,73.0,60.1,30.14,WSW,250,0.0,1.0,64,0.00,CLR,OVC,0.00,WeatherDisplay:10.37,2013-07-03 20:30:00,
2013-07-03 13:33:00,72.9,59.1,30.14,WSW,250,3.1,4.6,62,0.00,CLR,OVC,0.00,WeatherDisplay:10.37,2013-07-03 20:33:00,
2013-07-03 13:35:00,72.7,60.3,30.14,WSW,250,0.1,1.2,65,0.00,CLR,OVC,0.00,WeatherDisplay:10.37,2013-07-03 20:35:00,
2013-07-03 13:38:00,72.9,60.4,30.13,WSW,250,0.2,2.3,65,0.00,CLR,OVC,0.00,WeatherDisplay:10.37,2013-07-03 20:38:00,
2013-07-03 13:39:00,72.9,60.0,30.13,WSW,250,0.1,2.3,64,0.00,CLR,OVC,0.00,WeatherDisplay:10.37,2013-07-03 20:39:00,
2013-07-03 13:41:00,73.1,58.4,30.13,WSW,250,0.9,2.3,60,0.00,CLR,OVC,0.00,WeatherDisplay:10.37,2013-07-03 20:41:00,
2013-07-03 13:43:00,72.9,59.1,30.13,WSW,250,2.7,3.5,62,0.00,CLR,OVC,0.00,WeatherDisplay:10.37,2013-07-03 20:43:00,
2013-07-03 13:44:00,72.8,59.0,30.13,WSW,250,1.5,3.5,62,0.00,CLR,OVC,0.00,WeatherDisplay:10.37,2013-07-03 20:44:00,
2013-07-03 13:45:00,72.7,58.9,30.13,WSW,250,0.2,2.3,62,0.00,CLR,OVC,0.00,WeatherDisplay:10.37,2013-07-03 20:45:00,
2013-07-03 13:47:00,72.6,59.3,30.13,WSW,250,0.9,3.5,63,0.00,CLR,OVC,0.00,WeatherDisplay:10.37,2013-07-03 20:47:00,
2013-07-03 13:49:00,72.4,58.6,30.13,WSW,250,1.9,3.5,62,0.00,CLR,OVC,0.00,WeatherDisplay:10.37,2013-07-03 20:49:00,
2013-07-03 13:50:00,72.2,59.3,30.13,WSW,250,0.8,3.5,64,0.00,CLR,OVC,0.00,WeatherDisplay:10.37,2013-07-03 20:50:00,
2013-07-03 13:52:00,72.1,58.8,30.13,WSW,250,2.7,4.6,63,0.00,CLR,OVC,0.00,WeatherDisplay:10.37,2013-07-03 20:52:00,
2013-07-03 13:54:00,72.1,59.2,30.13,WSW,250,0.6,3.5,64,0.00,CLR,OVC,0.00,WeatherDisplay:10.37,2013-07-03 20:54:00,
2013-07-03 13:57:00,72.2,60.2,30.13,WSW,250,0.6,3.5,66,0.00,CLR,OVC,0.00,WeatherDisplay:10.37,2013-07-03 20:57:00,
2013-07-03 13:59:00,72.1,59.7,30.13,WSW,250,0.5,2.3,65,0.00,CLR,OVC,0.00,WeatherDisplay:10.37,2013-07-03 20:59:00,
2013-07-03 14:02:00,72.0,59.2,30.13,WSW,254,3.0,6.9,64,0.00,CLR,OVC,0.00,WeatherDisplay:10.37,2013-07-03 21:02:00,
2013-07-03 14:04:00,71.9,59.5,30.13,WSW,254,1.4,3.5,65,0.00,CLR,OVC,0.00,WeatherDisplay:10.37,2013-07-03 21:04:00,
2013-07-03 14:06:00,71.9,59.9,30.13,WSW,252,2.6,5.8,66,0.00,CLR,OVC,0.00,WeatherDisplay:10.37,2013-07-03 21:06:00,
2013-07-03 14:07:00,71.8,59.0,30.13,WSW,252,0.3,1.2,64,0.00,CLR,OVC,0.00,WeatherDisplay:10.37,2013-07-03 21:07:00,
2013-07-03 14:09:00,71.8,59.8,30.12,WSW,252,0.6,3.5,66,0.00,CLR,OVC,0.00,WeatherDisplay:10.37,2013-07-03 21:09:00,
2013-07-03 14:12:00,71.9,59.9,30.12,WSW,252,0.0,2.3,66,0.00,CLR,OVC,0.00,WeatherDisplay:10.37,2013-07-03 21:12:00,
2013-07-03 14:13:00,72.0,60.0,30.12,WSW,252,0.2,1.2,66,0.00,CLR,OVC,0.00,WeatherDisplay:10.37,2013-07-03 21:13:00,
2013-07-03 14:14:00,72.1,60.5,30.12,WSW,252,0.0,1.2,67,0.00,CLR,OVC,0.00,WeatherDisplay:10.37,2013-07-03 21:14:00,
2013-07-03 14:15:00,72.2,60.6,30.12,WSW,252,0.0,0.0,67,0.00,CLR,OVC,0.00,WeatherDisplay:10.37,2013-07-03 21:15:00,
2013-07-03 14:17:00,72.4,60.4,30.12,WSW,252,0.1,1.2,66,0.00,CLR,OVC,0.00,WeatherDisplay:10.37,2013-07-03 21:17:00,
2013-07-03 14:20:00,72.3,59.9,30.12,WSW,250,0.1,8.1,65,0.00,CLR,OVC,0.00,WeatherDisplay:10.37,2013-07-03 21:20:00,
2013-07-03 14:22:00,72.2,58.9,30.12,WSW,252,1.0,4.6,63,0.00,CLR,OVC,0.00,WeatherDisplay:10.37,2013-07-03 21:22:00,
2013-07-03 14:26:00,72.2,58.5,30.12,WSW,252,0.1,3.5,62,0.00,CLR,OVC,0.00,WeatherDisplay:10.37,2013-07-03 21:26:00,
2013-07-03 14:30:00,72.1,58.4,30.12,WSW,240,1.0,5.0,62,0.00,CLR,OVC,0.00,WeatherDisplay:10.37,2013-07-03 21:30:00,
2013-07-03 14:31:00,72.0,58.7,30.12,WSW,254,4.2,5.8,63,0.00,CLR,OVC,0.00,WeatherDisplay:10.37,2013-07-03 21:31:00,
2013-07-03 14:35:00,71.7,58.4,30.12,WSW,255,1.4,3.5,63,0.00,CLR,OVC,0.00,WeatherDisplay:10.37,2013-07-03 21:35:00,
2013-07-03 14:36:00,71.7,59.3,30.12,WSW,255,0.5,2.3,65,0.00,CLR,OVC,0.00,WeatherDisplay:10.37,2013-07-03 21:36:00,
2013-07-03 14:37:00,71.7,59.7,30.12,WSW,254,1.3,3.5,66,0.00,CLR,OVC,0.00,WeatherDisplay:10.37,2013-07-03 21:37:00,
2013-07-03 14:38:00,71.8,59.4,30.12,WSW,255,0.3,2.3,65,0.00,CLR,OVC,0.00,WeatherDisplay:10.37,2013-07-03 21:38:00,
2013-07-03 14:41:00,71.9,58.6,30.12,SW,232,5.4,6.9,63,0.00,CLR,OVC,0.00,WeatherDisplay:10.37,2013-07-03 21:41:00,
2013-07-03 14:42:00,71.9,59.1,30.12,WSW,253,6.1,10.4,64,0.00,CLR,OVC,0.00,WeatherDisplay:10.37,2013-07-03 21:42:00,
2013-07-03 14:43:00,71.7,58.4,30.12,WSW,249,4.2,8.1,63,0.00,CLR,OVC,0.00,WeatherDisplay:10.37,2013-07-03 21:43:00,
2013-07-03 14:46:00,71.6,59.2,30.12,WSW,257,2.2,4.0,65,0.00,CLR,OVC,0.00,WeatherDisplay:10.37,2013-07-03 21:46:00,
2013-07-03 14:47:00,71.7,59.3,30.12,WSW,248,3.1,6.9,65,0.00,CLR,OVC,0.00,WeatherDisplay:10.37,2013-07-03 21:47:00,
2013-07-03 14:48:00,71.8,60.2,30.11,WSW,251,1.0,2.3,67,0.00,CLR,OVC,0.00,WeatherDisplay:10.37,2013-07-03 21:48:00,
2013-07-03 14:52:00,72.0,59.2,30.11,WSW,258,2.2,3.5,64,0.00,CLR,OVC,0.00,WeatherDisplay:10.37,2013-07-03 21:52:00,
2013-07-03 14:53:00,72.0,59.6,30.11,WSW,258,0.1,3.5,65,0.00,CLR,OVC,0.00,WeatherDisplay:10.37,2013-07-03 21:53:00,
2013-07-03 14:54:00,72.1,59.2,30.11,WSW,258,1.0,3.0,64,0.00,CLR,OVC,0.00,WeatherDisplay:10.37,2013-07-03 21:54:00,
2013-07-03 14:58:00,72.2,58.9,30.11,West,271,1.6,3.5,63,0.00,CLR,OVC,0.00,WeatherDisplay:10.37,2013-07-03 21:58:00,
2013-07-03 14:59:00,72.2,58.9,30.11,WSW,255,1.3,3.0,63,0.00,CLR,OVC,0.00,WeatherDisplay:10.37,2013-07-03 21:59:00,
2013-07-03 15:03:00,72.3,60.3,30.11,WSW,241,1.9,5.8,66,0.00,CLR,OVC,0.00,WeatherDisplay:10.37,2013-07-03 22:03:00,
2013-07-03 15:04:00,72.4,59.5,30.11,West,267,3.1,3.5,64,0.00,CLR,OVC,0.00,WeatherDisplay:10.37,2013-07-03 22:04:00,
2013-07-03 15:08:00,72.2,58.5,30.11,WSW,257,1.2,4.6,62,0.00,CLR,OVC,0.00,WeatherDisplay:10.37,2013-07-03 22:08:00,
2013-07-03 15:09:00,72.2,58.5,30.11,WSW,257,1.0,2.3,62,0.00,CLR,OVC,0.00,WeatherDisplay:10.37,2013-07-03 22:09:00,
2013-07-03 15:15:00,72.0,58.3,30.11,WSW,255,6.3,8.1,62,0.00,CLR,OVC,0.00,WeatherDisplay:10.37,2013-07-03 22:15:00,
2013-07-03 15:16:00,71.9,58.6,30.10,WSW,257,2.2,4.6,63,0.00,CLR,OVC,0.00,WeatherDisplay:10.37,2013-07-03 22:16:00,
2013-07-03 15:20:00,71.9,58.6,30.11,WSW,256,2.9,6.9,63,0.00,CLR,OVC,0.00,WeatherDisplay:10.37,2013-07-03 22:20:00,
2013-07-03 15:21:00,71.9,59.5,30.11,WSW,252,2.9,5.0,65,0.00,CLR,OVC,0.00,WeatherDisplay:10.37,2013-07-03 22:21:00,
2013-07-03 15:22:00,71.9,58.6,30.11,WSW,250,4.1,8.1,63,0.00,CLR,OVC,0.00,WeatherDisplay:10.37,2013-07-03 22:22:00,
2013-07-03 15:25:00,71.9,58.6,30.10,West,281,5.0,9.2,63,0.00,CLR,OVC,0.00,WeatherDisplay:10.37,2013-07-03 22:25:00,
2013-07-03 15:26:00,71.9,58.6,30.11,West,262,3.5,9.2,63,0.00,CLR,OVC,0.00,WeatherDisplay:10.37,2013-07-03 22:26:00,
2013-07-03 15:27:00,71.8,59.0,30.11,WSW,247,2.2,5.0,64,0.00,CLR,OVC,0.00,WeatherDisplay:10.37,2013-07-03 22:27:00,
2013-07-03 15:28:00,71.9,59.1,30.10,WSW,246,4.6,9.2,64,0.00,CLR,OVC,0.00,WeatherDisplay:10.37,2013-07-03 22:28:00,
2013-07-03 15:30:00,71.9,58.6,30.11,WSW,253,2.7,6.9,63,0.00,CLR,OVC,0.00,WeatherDisplay:10.37,2013-07-03 22:30:00,
2013-07-03 15:31:00,71.9,58.6,30.10,WSW,254,1.4,3.5,63,0.00,CLR,OVC,0.00,WeatherDisplay:10.37,2013-07-03 22:31:00,
2013-07-03 15:32:00,72.0,59.2,30.10,WSW,252,2.8,6.9,64,0.00,CLR,OVC,0.00,WeatherDisplay:10.37,2013-07-03 22:32:00,
2013-07-03 15:35:00,72.1,59.7,30.10,WSW,250,3.6,4.6,65,0.00,CLR,OVC,0.00,WeatherDisplay:10.37,2013-07-03 22:35:00,
2013-07-03 15:36:00,72.1,58.8,30.10,WSW,251,1.3,3.5,63,0.00,CLR,OVC,0.00,WeatherDisplay:10.37,2013-07-03 22:36:00,
2013-07-03 15:40:00,72.2,58.9,30.11,NNW,335,0.0,4.6,63,0.00,CLR,OVC,0.00,WeatherDisplay:10.37,2013-07-03 22:40:00,
2013-07-03 15:41:00,72.3,59.0,30.10,WNW,283,0.2,1.0,63,0.00,CLR,OVC,0.00,WeatherDisplay:10.37,2013-07-03 22:41:00,
2013-07-03 15:45:00,72.5,58.7,30.10,WSW,255,3.0,4.6,62,0.00,CLR,OVC,0.00,WeatherDisplay:10.37,2013-07-03 22:45:00,
2013-07-03 15:46:00,72.5,59.2,30.10,WSW,248,3.8,7.0,63,0.00,CLR,OVC,0.00,WeatherDisplay:10.37,2013-07-03 22:46:00,
2013-07-03 15:50:00,72.5,58.7,30.10,WSW,258,0.3,1.2,62,0.00,CLR,OVC,0.00,WeatherDisplay:10.37,2013-07-03 22:50:00,
2013-07-03 15:51:00,72.5,58.7,30.10,WNW,288,0.0,2.3,62,0.00,CLR,OVC,0.00,WeatherDisplay:10.37,2013-07-03 22:51:00,
2013-07-03 15:53:00,72.5,59.6,30.10,WSW,239,1.2,3.5,64,0.00,CLR,OVC,0.00,WeatherDisplay:10.37,2013-07-03 22:53:00,
2013-07-03 15:56:00,72.6,59.3,30.10,WSW,254,1.5,3.5,63,0.00,CLR,OVC,0.00,WeatherDisplay:10.37,2013-07-03 22:56:00,
2013-07-03 15:59:00,72.6,58.4,30.10,WSW,258,2.1,3.5,61,0.00,CLR,OVC,0.00,WeatherDisplay:10.37,2013-07-03 22:59:00,
2013-07-03 16:02:00,72.4,59.1,30.10,WSW,257,1.3,3.5,63,0.00,CLR,OVC,0.00,WeatherDisplay:10.37,2013-07-03 23:02:00,
2013-07-03 16:04:00,72.4,58.2,30.09,WSW,250,1.5,5.8,61,0.00,CLR,OVC,0.00,WeatherDisplay:10.37,2013-07-03 23:04:00,
2013-07-03 16:06:00,72.4,58.6,30.09,North,360,0.4,4.6,62,0.00,CLR,OVC,0.00,WeatherDisplay:10.37,2013-07-03 23:06:00,
2013-07-03 16:07:00,72.3,58.5,30.09,North,355,0.0,4.6,62,0.00,CLR,OVC,0.00,WeatherDisplay:10.37,2013-07-03 23:07:00,
2013-07-03 16:08:00,72.3,58.5,30.09,West,266,0.6,3.5,62,0.00,CLR,OVC,0.00,WeatherDisplay:10.37,2013-07-03 23:08:00,
2013-07-03 16:09:00,72.3,58.1,30.09,WSW,248,2.0,3.5,61,0.00,CLR,OVC,0.00,WeatherDisplay:10.37,2013-07-03 23:09:00,
2013-07-03 16:11:00,72.2,58.5,30.09,West,261,0.0,5.8,62,0.00,CLR,OVC,0.00,WeatherDisplay:10.37,2013-07-03 23:11:00,
2013-07-03 16:12:00,72.2,58.5,30.09,West,273,1.1,1.2,62,0.00,CLR,OVC,0.00,WeatherDisplay:10.37,2013-07-03 23:12:00,
2013-07-03 16:14:00,72.2,58.0,30.09,West,273,0.9,3.5,61,0.00,CLR,OVC,0.00,WeatherDisplay:10.37,2013-07-03 23:14:00,
2013-07-03 16:15:00,72.2,58.9,30.09,West,272,0.1,1.2,63,0.00,CLR,OVC,0.00,WeatherDisplay:10.37,2013-07-03 23:15:00,
2013-07-03 16:17:00,72.2,58.9,30.09,WSW,257,0.8,2.0,63,0.00,CLR,OVC,0.00,WeatherDisplay:10.37,2013-07-03 23:17:00,
2013-07-03 16:18:00,72.3,59.0,30.09,WSW,257,1.2,3.5,63,0.00,CLR,OVC,0.00,WeatherDisplay:10.37,2013-07-03 23:18:00,
2013-07-03 16:21:00,72.4,59.5,30.09,SW,226,0.1,3.5,64,0.00,CLR,OVC,0.00,WeatherDisplay:10.37,2013-07-03 23:21:00,
2013-07-03 16:22:00,72.4,59.5,30.09,SW,227,0.2,1.2,64,0.00,CLR,OVC,0.00,WeatherDisplay:10.37,2013-07-03 23:22:00,
2013-07-03 16:23:00,72.4,58.6,30.09,SW,227,0.4,2.3,62,0.00,CLR,OVC,0.00,WeatherDisplay:10.37,2013-07-03 23:23:00,
2013-07-03 16:24:00,72.4,58.6,30.09,SW,227,0.2,0.0,62,0.00,CLR,OVC,0.00,WeatherDisplay:10.37,2013-07-03 23:24:00,
2013-07-03 16:28:00,72.6,58.4,30.09,WSW,248,0.0,2.3,61,0.00,CLR,OVC,0.00,WeatherDisplay:10.37,2013-07-03 23:28:00,
2013-07-03 16:29:00,72.5,57.8,30.09,West,259,0.7,2.3,60,0.00,CLR,OVC,0.00,WeatherDisplay:10.37,2013-07-03 23:29:00,
2013-07-03 16:30:00,72.5,58.3,30.09,WSW,254,0.8,3.5,61,0.00,CLR,OVC,0.00,WeatherDisplay:10.37,2013-07-03 23:30:00,
2013-07-03 16:33:00,72.6,58.8,30.09,West,265,0.0,0.0,62,0.00,CLR,OVC,0.00,WeatherDisplay:10.37,2013-07-03 23:33:00,
2013-07-03 16:34:00,72.7,58.9,30.09,WSW,254,2.4,3.5,62,0.00,CLR,OVC,0.00,WeatherDisplay:10.37,2013-07-03 23:34:00,
2013-07-03 16:35:00,72.7,58.5,30.09,WSW,256,0.0,2.3,61,0.00,CLR,OVC,0.00,WeatherDisplay:10.37,2013-07-03 23:35:00,
2013-07-03 16:38:00,72.7,58.5,30.09,WSW,257,0.3,2.3,61,0.00,CLR,OVC,0.00,WeatherDisplay:10.37,2013-07-03 23:38:00,
2013-07-03 16:39:00,72.7,58.5,30.09,WSW,257,0.4,3.0,61,0.00,CLR,OVC,0.00,WeatherDisplay:10.37,2013-07-03 23:39:00,
2013-07-03 16:40:00,72.7,58.0,30.09,West,260,1.7,2.0,60,0.00,CLR,OVC,0.00,WeatherDisplay:10.37,2013-07-03 23:40:00,
2013-07-03 16:41:00,72.7,58.5,30.09,WSW,242,1.6,3.5,61,0.00,CLR,OVC,0.00,WeatherDisplay:10.37,2013-07-03 23:41:00,
2013-07-03 16:45:00,72.5,58.3,30.08,WSW,257,1.0,6.9,61,0.00,CLR,OVC,0.00,WeatherDisplay:10.37,2013-07-03 23:45:00,
2013-07-03 16:46:00,72.5,58.7,30.08,NNW,336,0.1,1.0,62,0.00,CLR,OVC,0.00,WeatherDisplay:10.37,2013-07-03 23:46:00,
2013-07-03 16:51:00,72.4,57.7,30.08,West,281,0.2,1.2,60,0.00,CLR,OVC,0.00,WeatherDisplay:10.37,2013-07-03 23:51:00,
2013-07-03 16:52:00,72.4,57.7,30.08,West,281,0.0,1.2,60,0.00,CLR,OVC,0.00,WeatherDisplay:10.37,2013-07-03 23:52:00,
2013-07-03 16:56:00,72.1,57.0,30.08,West,261,0.7,3.5,59,0.00,CLR,OVC,0.00,WeatherDisplay:10.37,2013-07-03 23:56:00,
2013-07-03 16:58:00,72.0,57.4,30.08,West,271,0.4,2.3,60,0.00,CLR,OVC,0.00,WeatherDisplay:10.37,2013-07-03 23:58:00,
2013-07-03 17:01:00,71.8,56.7,30.08,West,266,0.9,3.5,59,0.00,CLR,OVC,0.00,WeatherDisplay:10.37,2013-07-04 00:01:00,
2013-07-03 17:02:00,71.8,57.2,30.08,West,267,0.9,3.5,60,0.00,CLR,OVC,0.00,WeatherDisplay:10.37,2013-07-04 00:02:00,
2013-07-03 17:03:00,71.7,56.6,30.08,NW,309,1.6,3.5,59,0.00,CLR,OVC,0.00,WeatherDisplay:10.37,2013-07-04 00:03:00,
2013-07-03 17:08:00,71.5,56.9,30.08,West,262,0.1,2.3,60,0.00,CLR,OVC,0.00,WeatherDisplay:10.37,2013-07-04 00:08:00,
2013-07-03 17:09:00,71.6,57.4,30.08,West,262,0.1,1.2,61,0.00,CLR,OVC,0.00,WeatherDisplay:10.37,2013-07-04 00:09:00,
2013-07-03 17:14:00,71.6,57.4,30.08,WNW,288,0.1,1.2,61,0.00,CLR,OVC,0.00,WeatherDisplay:10.37,2013-07-04 00:14:00,
2013-07-03 17:15:00,71.6,57.0,30.08,West,269,0.4,2.3,60,0.00,CLR,OVC,0.00,WeatherDisplay:10.37,2013-07-04 00:15:00,
2013-07-03 17:19:00,71.5,56.9,30.08,West,265,0.3,1.2,60,0.00,CLR,OVC,0.00,WeatherDisplay:10.37,2013-07-04 00:19:00,
2013-07-03 17:20:00,71.5,57.3,30.08,West,265,0.3,1.2,61,0.00,CLR,OVC,0.00,WeatherDisplay:10.37,2013-07-04 00:20:00,
2013-07-03 17:22:00,71.4,57.2,30.08,West,263,1.6,3.5,61,0.00,CLR,OVC,0.00,WeatherDisplay:10.37,2013-07-04 00:22:00,
2013-07-03 17:25:00,71.4,56.8,30.08,West,277,0.5,3.5,60,0.00,CLR,OVC,0.00,WeatherDisplay:10.37,2013-07-04 00:25:00,
2013-07-03 17:26:00,71.2,56.1,30.08,West,263,1.8,4.0,59,0.00,CLR,OVC,0.00,WeatherDisplay:10.37,2013-07-04 00:26:00,
2013-07-03 17:27:00,71.2,56.1,30.08,WSW,254,2.3,5.8,59,0.00,CLR,OVC,0.00,WeatherDisplay:10.37,2013-07-04 00:27:00,
2013-07-03 17:30:00,71.0,55.9,30.07,WSW,258,1.1,3.5,59,0.00,CLR,OVC,0.00,WeatherDisplay:10.37,2013-07-04 00:30:00,
2013-07-03 17:31:00,71.0,55.9,30.07,WSW,254,2.1,2.3,59,0.00,CLR,OVC,0.00,WeatherDisplay:10.37,2013-07-04 00:31:00,
2013-07-03 17:32:00,71.0,55.9,30.07,WSW,254,2.1,2.3,59,0.00,CLR,OVC,0.00,WeatherDisplay:10.37,2013-07-04 00:32:00,
2013-07-03 17:37:00,70.8,55.8,30.07,West,263,0.6,3.5,59,0.00,CLR,OVC,0.00,WeatherDisplay:10.37,2013-07-04 00:37:00,
2013-07-03 17:38:00,70.7,55.7,30.08,WSW,246,1.0,3.5,59,0.00,CLR,OVC,0.00,WeatherDisplay:10.37,2013-07-04 00:38:00,
2013-07-03 17:39:00,70.7,55.7,30.07,WSW,246,0.1,1.2,59,0.00,CLR,OVC,0.00,WeatherDisplay:10.37,2013-07-04 00:39:00,
2013-07-03 17:43:00,70.6,55.6,30.07,West,262,1.3,6.9,59,0.00,CLR,OVC,0.00,WeatherDisplay:10.37,2013-07-04 00:43:00,
2013-07-03 17:44:00,70.6,55.1,30.07,West,266,0.2,0.0,58,0.00,CLR,OVC,0.00,WeatherDisplay:10.37,2013-07-04 00:44:00,
2013-07-03 17:45:00,70.6,55.6,30.07,West,261,0.0,7.0,59,0.00,CLR,OVC,0.00,WeatherDisplay:10.37,2013-07-04 00:45:00,
2013-07-03 17:48:00,70.4,54.4,30.07,WSW,252,0.0,0.0,57,0.00,CLR,OVC,0.00,WeatherDisplay:10.37,2013-07-04 00:48:00,
2013-07-03 17:50:00,70.3,54.8,30.08,NNE,22,0.8,3.5,58,0.00,CLR,OVC,0.00,WeatherDisplay:10.37,2013-07-04 00:50:00,
2013-07-03 17:55:00,70.1,55.6,30.07,NNW,329,0.0,1.0,60,0.00,CLR,OVC,0.00,WeatherDisplay:10.37,2013-07-04 00:55:00,
2013-07-03 18:00:00,70.0,55.9,30.07,West,270,0.0,0.0,61,0.00,CLR,OVC,0.00,WeatherDisplay:10.37,2013-07-04 01:00:00,
2013-07-03 18:01:00,70.0,55.5,30.07,West,270,0.1,0.0,60,0.00,CLR,OVC,0.00,WeatherDisplay:10.37,2013-07-04 01:01:00,
2013-07-03 18:02:00,70.0,55.5,30.07,West,270,0.1,1.2,60,0.00,CLR,OVC,0.00,WeatherDisplay:10.37,2013-07-04 01:02:00,
2013-07-03 18:05:00,69.9,55.4,30.07,West,261,1.1,0.0,60,0.00,CLR,OVC,0.00,WeatherDisplay:10.37,2013-07-04 01:05:00,
2013-07-03 18:07:00,69.7,54.7,30.07,West,264,1.0,4.6,59,0.00,CLR,OVC,0.00,WeatherDisplay:10.37,2013-07-04 01:07:00,
2013-07-03 18:09:00,69.7,54.3,30.07,West,265,1.4,3.5,58,0.00,CLR,OVC,0.00,WeatherDisplay:10.37,2013-07-04 01:09:00,
2013-07-03 18:11:00,69.5,54.5,30.07,West,259,1.2,3.5,59,0.00,CLR,OVC,0.00,WeatherDisplay:10.37,2013-07-04 01:11:00,
2013-07-03 18:12:00,69.5,54.5,30.07,West,260,0.0,3.5,59,0.00,CLR,OVC,0.00,WeatherDisplay:10.37,2013-07-04 01:12:00,
2013-07-03 18:14:00,69.4,54.0,30.07,West,260,0.0,0.0,58,0.00,CLR,OVC,0.00,WeatherDisplay:10.37,2013-07-04 01:14:00,
2013-07-03 18:15:00,69.4,54.4,30.07,West,260,0.9,3.5,59,0.00,CLR,OVC,0.00,WeatherDisplay:10.37,2013-07-04 01:15:00,
2013-07-03 18:17:00,69.3,54.8,30.07,West,260,0.2,2.3,60,0.00,CLR,OVC,0.00,WeatherDisplay:10.37,2013-07-04 01:17:00,
2013-07-03 18:18:00,69.3,54.8,30.07,WSW,243,0.7,2.3,60,0.00,CLR,OVC,0.00,WeatherDisplay:10.37,2013-07-04 01:18:00,
2013-07-03 18:20:00,69.2,54.3,30.07,WSW,243,0.3,2.3,59,0.00,CLR,OVC,0.00,WeatherDisplay:10.37,2013-07-04 01:20:00,
2013-07-03 18:23:00,69.0,54.1,30.07,NNW,331,0.1,1.2,59,0.00,CLR,OVC,0.00,WeatherDisplay:10.37,2013-07-04 01:23:00,
2013-07-03 18:25:00,68.9,54.4,30.07,WNW,291,0.1,1.2,60,0.00,CLR,OVC,0.00,WeatherDisplay:10.37,2013-07-04 01:25:00,
2013-07-03 18:26:00,68.8,53.9,30.07,WNW,291,0.2,1.2,59,0.00,CLR,OVC,0.00,WeatherDisplay:10.37,2013-07-04 01:26:00,
2013-07-03 18:28:00,68.7,53.8,30.08,West,260,0.1,3.5,59,0.00,CLR,OVC,0.00,WeatherDisplay:10.37,2013-07-04 01:28:00,
2013-07-03 18:29:00,68.6,53.7,30.07,NNW,336,0.2,2.3,59,0.00,CLR,OVC,0.00,WeatherDisplay:10.37,2013-07-04 01:29:00,
2013-07-03 18:31:00,68.5,54.1,30.07,WNW,297,0.5,1.2,60,0.00,CLR,OVC,0.00,WeatherDisplay:10.37,2013-07-04 01:31:00,
2013-07-03 18:32:00,68.4,54.0,30.07,WNW,296,0.5,3.5,60,0.00,CLR,OVC,0.00,WeatherDisplay:10.37,2013-07-04 01:32:00,
2013-07-03 18:33:00,68.3,53.9,30.07,West,259,0.3,1.2,60,0.00,CLR,OVC,0.00,WeatherDisplay:10.37,2013-07-04 01:33:00,
2013-07-03 18:35:00,68.1,53.7,30.07,NW,305,0.0,1.2,60,0.00,CLR,OVC,0.00,WeatherDisplay:10.37,2013-07-04 01:35:00,
2013-07-03 18:36:00,68.1,53.7,30.07,WNW,299,0.0,2.0,60,0.00,CLR,OVC,0.00,WeatherDisplay:10.37,2013-07-04 01:36:00,
2013-07-03 18:39:00,67.9,53.5,30.07,WNW,299,0.0,0.0,60,0.00,CLR,OVC,0.00,WeatherDisplay:10.37,2013-07-04 01:39:00,
2013-07-03 18:41:00,67.9,54.0,30.08,WNW,290,0.0,0.0,61,0.00,CLR,OVC,0.00,WeatherDisplay:10.37,2013-07-04 01:41:00,
2013-07-03 18:42:00,67.8,54.3,30.07,WNW,289,0.0,0.0,62,0.00,CLR,OVC,0.00,WeatherDisplay:10.37,2013-07-04 01:42:00,
2013-07-03 18:44:00,67.7,54.2,30.08,WNW,288,0.0,1.2,62,0.00,CLR,OVC,0.00,WeatherDisplay:10.37,2013-07-04 01:44:00,
2013-07-03 18:46:00,67.6,54.6,30.07,WNW,288,0.3,1.2,63,0.00,CLR,OVC,0.00,WeatherDisplay:10.37,2013-07-04 01:46:00,
2013-07-03 18:47:00,67.6,53.7,30.08,WNW,288,0.1,1.2,61,0.00,CLR,OVC,0.00,WeatherDisplay:10.37,2013-07-04 01:47:00,
2013-07-03 18:50:00,67.4,53.9,30.08,West,259,0.4,3.5,62,0.00,CLR,OVC,0.00,WeatherDisplay:10.37,2013-07-04 01:50:00,
2013-07-03 18:51:00,67.4,53.9,30.08,West,259,0.1,1.2,62,0.00,CLR,OVC,0.00,WeatherDisplay:10.37,2013-07-04 01:51:00,
2013-07-03 18:52:00,67.4,54.4,30.08,West,259,0.4,2.3,63,0.00,CLR,OVC,0.00,WeatherDisplay:10.37,2013-07-04 01:52:00,
2013-07-03 18:56:00,67.2,54.2,30.08,West,259,0.4,2.3,63,0.00,CLR,OVC,0.00,WeatherDisplay:10.37,2013-07-04 01:56:00,
2013-07-03 18:59:00,67.0,54.0,30.08,West,259,0.1,1.2,63,0.00,CLR,OVC,0.00,WeatherDisplay:10.37,2013-07-04 01:59:00,
2013-07-03 19:00:00,67.0,54.0,30.08,West,259,0.1,1.2,63,0.00,CLR,OVC,0.00,WeatherDisplay:10.37,2013-07-04 02:00:00,
2013-07-03 19:02:00,66.9,53.9,30.08,West,259,0.9,0.0,63,0.00,CLR,OVC,0.00,WeatherDisplay:10.37,2013-07-04 02:02:00,
2013-07-03 19:05:00,66.7,54.1,30.08,SSW,198,0.0,0.0,64,0.00,CLR,OVC,0.00,WeatherDisplay:10.37,2013-07-04 02:05:00,
2013-07-03 19:06:00,66.5,53.5,30.08,West,277,1.1,2.0,63,0.00,CLR,OVC,0.00,WeatherDisplay:10.37,2013-07-04 02:06:00,
2013-07-03 19:07:00,66.5,53.5,30.08,West,266,1.0,2.3,63,0.00,CLR,OVC,0.00,WeatherDisplay:10.37,2013-07-04 02:07:00,
2013-07-03 19:08:00,66.4,53.8,30.08,West,266,0.0,3.5,64,0.00,CLR,OVC,0.00,WeatherDisplay:10.37,2013-07-04 02:08:00,
2013-07-03 19:11:00,66.3,53.8,30.08,West,260,0.7,0.0,64,0.00,CLR,OVC,0.00,WeatherDisplay:10.37,2013-07-04 02:11:00,
2013-07-03 19:13:00,66.2,53.7,30.08,West,260,0.0,1.2,64,0.00,CLR,OVC,0.00,WeatherDisplay:10.37,2013-07-04 02:13:00,
2013-07-03 19:15:00,66.1,53.6,30.08,NW,311,0.2,0.0,64,0.00,CLR,OVC,0.00,WeatherDisplay:10.37,2013-07-04 02:15:00,
2013-07-03 19:17:00,66.0,53.5,30.08,NW,309,0.1,1.2,64,0.00,CLR,OVC,0.00,WeatherDisplay:10.37,2013-07-04 02:17:00,
2013-07-03 19:18:00,65.9,53.4,30.08,WNW,291,1.1,1.2,64,0.00,CLR,OVC,0.00,WeatherDisplay:10.37,2013-07-04 02:18:00,
2013-07-03 19:21:00,65.7,53.6,30.08,WNW,292,0.2,0.0,65,0.00,CLR,OVC,0.00,WeatherDisplay:10.37,2013-07-04 02:21:00,
2013-07-03 19:22:00,65.7,53.6,30.08,WNW,292,0.1,1.2,65,0.00,CLR,OVC,0.00,WeatherDisplay:10.37,2013-07-04 02:22:00,
2013-07-03 19:23:00,65.6,53.5,30.08,WNW,292,0.5,1.0,65,0.00,CLR,OVC,0.00,WeatherDisplay:10.37,2013-07-04 02:23:00,
2013-07-03 19:27:00,65.4,53.7,30.08,WNW,290,1.7,5.8,66,0.00,CLR,OVC,0.00,WeatherDisplay:10.37,2013-07-04 02:27:00,
2013-07-03 19:28:00,65.3,53.6,30.08,West,267,0.5,3.5,66,0.00,CLR,OVC,0.00,WeatherDisplay:10.37,2013-07-04 02:28:00,
2013-07-03 19:29:00,65.2,53.6,30.08,West,267,0.5,2.3,66,0.00,CLR,OVC,0.00,WeatherDisplay:10.37,2013-07-04 02:29:00,
2013-07-03 19:32:00,65.0,53.8,30.08,West,273,0.6,1.2,67,0.00,CLR,OVC,0.00,WeatherDisplay:10.37,2013-07-04 02:32:00,
2013-07-03 19:34:00,64.9,54.1,30.08,West,275,0.0,1.2,68,0.00,CLR,OVC,0.00,WeatherDisplay:10.37,2013-07-04 02:34:00,
2013-07-03 19:35:00,64.8,54.0,30.08,West,275,0.3,3.5,68,0.00,CLR,OVC,0.00,WeatherDisplay:10.37,2013-07-04 02:35:00,
2013-07-03 19:38:00,64.7,53.9,30.08,WNW,286,0.0,1.2,68,0.00,CLR,OVC,0.00,WeatherDisplay:10.37,2013-07-04 02:38:00,
2013-07-03 19:40:00,64.6,53.8,30.08,WNW,286,0.0,1.2,68,0.00,CLR,OVC,0.00,WeatherDisplay:10.37,2013-07-04 02:40:00,
2013-07-03 19:44:00,64.4,53.6,30.08,WNW,286,0.7,0.0,68,0.00,CLR,OVC,0.00,WeatherDisplay:10.37,2013-07-04 02:44:00,
2013-07-03 19:45:00,64.3,53.9,30.08,NW,306,0.2,3.5,69,0.00,CLR,OVC,0.00,WeatherDisplay:10.37,2013-07-04 02:45:00,
2013-07-03 19:46:00,64.3,53.9,30.08,NW,306,0.1,1.2,69,0.00,CLR,OVC,0.00,WeatherDisplay:10.37,2013-07-04 02:46:00,
2013-07-03 19:49:00,64.1,53.7,30.08,NW,304,0.6,2.3,69,0.00,CLR,OVC,0.00,WeatherDisplay:10.37,2013-07-04 02:49:00,
2013-07-03 19:51:00,64.0,54.0,30.08,NW,304,0.0,0.0,70,0.00,CLR,OVC,0.00,WeatherDisplay:10.37,2013-07-04 02:51:00,
2013-07-03 19:52:00,64.0,54.0,30.08,NW,304,0.0,0.0,70,0.00,CLR,OVC,0.00,WeatherDisplay:10.37,2013-07-04 02:52:00,
2013-07-03 19:55:00,63.9,53.9,30.09,NW,304,0.1,0.0,70,0.00,CLR,OVC,0.00,WeatherDisplay:10.37,2013-07-04 02:55:00,
2013-07-03 19:57:00,63.8,53.8,30.08,WNW,302,0.0,0.0,70,0.00,CLR,OVC,0.00,WeatherDisplay:10.37,2013-07-04 02:57:00,
2013-07-03 20:00:00,63.6,54.0,30.09,WNW,302,0.0,1.2,71,0.00,CLR,OVC,0.00,WeatherDisplay:10.37,2013-07-04 03:00:00,
2013-07-03 20:02:00,63.5,53.9,30.09,WNW,302,0.1,3.5,71,0.00,CLR,OVC,0.00,WeatherDisplay:10.37,2013-07-04 03:02:00,
2013-07-03 20:03:00,63.4,53.8,30.09,WNW,302,0.3,1.2,71,0.00,CLR,OVC,0.00,WeatherDisplay:10.37,2013-07-04 03:03:00,
2013-07-03 20:05:00,63.3,54.1,30.09,WNW,284,0.1,3.5,72,0.00,CLR,OVC,0.00,WeatherDisplay:10.37,2013-07-04 03:05:00,
2013-07-03 20:08:00,63.1,53.9,30.09,WNW,284,0.1,1.2,72,0.00,CLR,OVC,0.00,WeatherDisplay:10.37,2013-07-04 03:08:00,
2013-07-03 20:12:00,62.9,54.1,30.09,WNW,284,0.3,1.2,73,0.00,CLR,OVC,0.00,WeatherDisplay:10.37,2013-07-04 03:12:00,
2013-07-03 20:13:00,62.9,54.1,30.09,WNW,284,0.0,2.3,73,0.00,CLR,OVC,0.00,WeatherDisplay:10.37,2013-07-04 03:13:00,
2013-07-03 20:14:00,62.9,54.1,30.09,WNW,284,0.0,0.0,73,0.00,CLR,OVC,0.00,WeatherDisplay:10.37,2013-07-04 03:14:00,
2013-07-03 20:15:00,62.7,53.9,30.09,WNW,284,0.0,1.2,73,0.00,CLR,OVC,0.00,WeatherDisplay:10.37,2013-07-04 03:15:00,
2013-07-03 20:19:00,62.5,54.1,30.09,West,261,0.0,0.0,74,0.00,CLR,OVC,0.00,WeatherDisplay:10.37,2013-07-04 03:19:00,
2013-07-03 20:21:00,62.4,54.0,30.09,West,261,0.0,3.5,74,0.00,CLR,OVC,0.00,WeatherDisplay:10.37,2013-07-04 03:21:00,
2013-07-03 20:24:00,62.2,53.8,30.09,West,261,0.0,0.0,74,0.00,CLR,OVC,0.00,WeatherDisplay:10.37,2013-07-04 03:24:00,
2013-07-03 20:25:00,62.1,54.1,30.09,West,261,0.1,2.3,75,0.00,CLR,OVC,0.00,WeatherDisplay:10.37,2013-07-04 03:25:00,
2013-07-03 20:26:00,62.1,54.1,30.09,West,261,0.3,1.2,75,0.00,CLR,OVC,0.00,WeatherDisplay:10.37,2013-07-04 03:26:00,
2013-07-03 20:29:00,61.9,53.9,30.09,West,261,0.0,1.0,75,0.00,CLR,OVC,0.00,WeatherDisplay:10.37,2013-07-04 03:29:00,
2013-07-03 20:31:00,61.8,53.8,30.09,West,261,0.2,1.2,75,0.00,CLR,OVC,0.00,WeatherDisplay:10.37,2013-07-04 03:31:00,
2013-07-03 20:32:00,61.8,53.8,30.09,West,261,0.0,1.2,75,0.00,CLR,OVC,0.00,WeatherDisplay:10.37,2013-07-04 03:32:00,
2013-07-03 20:34:00,61.7,53.7,30.09,West,261,0.5,2.3,75,0.00,CLR,OVC,0.00,WeatherDisplay:10.37,2013-07-04 03:34:00,
2013-07-03 20:35:00,61.6,54.0,30.09,West,261,0.2,2.3,76,0.00,CLR,OVC,0.00,WeatherDisplay:10.37,2013-07-04 03:35:00,
2013-07-03 20:37:00,61.5,53.9,30.09,West,261,0.0,1.2,76,0.00,CLR,OVC,0.00,WeatherDisplay:10.37,2013-07-04 03:37:00,
2013-07-03 20:38:00,61.4,53.8,30.09,West,266,0.1,1.2,76,0.00,CLR,OVC,0.00,WeatherDisplay:10.37,2013-07-04 03:38:00,
2013-07-03 20:39:00,61.3,53.7,30.09,West,266,0.1,1.2,76,0.00,CLR,OVC,0.00,WeatherDisplay:10.37,2013-07-04 03:39:00,
2013-07-03 20:40:00,61.3,54.0,30.09,West,266,0.0,1.2,77,0.00,CLR,OVC,0.00,WeatherDisplay:10.37,2013-07-04 03:40:00,
2013-07-03 20:44:00,61.0,53.7,30.09,West,266,0.3,2.3,77,0.00,CLR,OVC,0.00,WeatherDisplay:10.37,2013-07-04 03:44:00,
2013-07-03 20:46:00,60.9,53.6,30.09,West,266,0.1,1.2,77,0.00,CLR,OVC,0.00,WeatherDisplay:10.37,2013-07-04 03:46:00,
2013-07-03 20:49:00,60.6,53.7,30.09,West,266,0.0,2.3,78,0.00,CLR,OVC,0.00,WeatherDisplay:10.37,2013-07-04 03:49:00,
2013-07-03 20:50:00,60.5,53.6,30.09,West,266,0.4,0.0,78,0.00,CLR,OVC,0.00,WeatherDisplay:10.37,2013-07-04 03:50:00,
2013-07-03 20:51:00,60.4,53.5,30.10,West,266,0.4,3.5,78,0.00,CLR,OVC,0.00,WeatherDisplay:10.37,2013-07-04 03:51:00,
2013-07-03 20:52:00,60.4,53.5,30.09,West,266,0.7,3.5,78,0.00,CLR,OVC,0.00,WeatherDisplay:10.37,2013-07-04 03:52:00,
2013-07-03 20:54:00,60.2,53.7,30.09,West,266,0.7,2.3,79,0.00,CLR,OVC,0.00,WeatherDisplay:10.37,2013-07-04 03:54:00,
2013-07-03 20:56:00,60.0,53.5,30.09,West,266,0.2,1.2,79,0.00,CLR,OVC,0.00,WeatherDisplay:10.37,2013-07-04 03:56:00,
2013-07-03 20:57:00,59.9,53.4,30.09,West,266,0.0,1.2,79,0.00,CLR,OVC,0.00,WeatherDisplay:10.37,2013-07-04 03:57:00,
2013-07-03 20:59:00,59.7,53.5,30.09,West,265,1.2,2.3,80,0.00,CLR,OVC,0.00,WeatherDisplay:10.37,2013-07-04 03:59:00,
2013-07-03 21:01:00,59.6,53.4,30.09,West,265,0.0,3.5,80,0.00,CLR,OVC,0.00,WeatherDisplay:10.37,2013-07-04 04:01:00,
2013-07-03 21:06:00,59.3,53.1,30.10,West,265,0.6,3.5,80,0.00,CLR,OVC,0.00,WeatherDisplay:10.37,2013-07-04 04:06:00,
2013-07-03 21:07:00,59.2,53.4,30.10,West,265,0.1,1.2,81,0.00,CLR,OVC,0.00,WeatherDisplay:10.37,2013-07-04 04:07:00,
2013-07-03 21:11:00,59.0,53.2,30.09,West,265,0.0,0.0,81,0.00,CLR,OVC,0.00,WeatherDisplay:10.37,2013-07-04 04:11:00,
2013-07-03 21:12:00,58.9,53.1,30.10,West,265,0.0,1.0,81,0.00,CLR,OVC,0.00,WeatherDisplay:10.37,2013-07-04 04:12:00,
2013-07-03 21:16:00,58.7,53.2,30.09,West,265,0.5,2.3,82,0.00,CLR,OVC,0.00,WeatherDisplay:10.37,2013-07-04 04:16:00,
2013-07-03 21:17:00,58.6,53.1,30.10,West,265,0.1,1.2,82,0.00,CLR,OVC,0.00,WeatherDisplay:10.37,2013-07-04 04:17:00,
2013-07-03 21:21:00,58.4,53.3,30.10,West,265,0.0,0.0,83,0.00,CLR,OVC,0.00,WeatherDisplay:10.37,2013-07-04 04:21:00,
2013-07-03 21:22:00,58.3,53.2,30.10,West,266,0.0,0.0,83,0.00,CLR,OVC,0.00,WeatherDisplay:10.37,2013-07-04 04:22:00,
2013-07-03 21:26:00,58.1,53.0,30.10,West,265,0.0,0.0,83,0.00,CLR,OVC,0.00,WeatherDisplay:10.37,2013-07-04 04:26:00,
2013-07-03 21:27:00,58.1,53.0,30.10,West,265,0.1,1.2,83,0.00,CLR,OVC,0.00,WeatherDisplay:10.37,2013-07-04 04:27:00,
2013-07-03 21:31:00,57.8,53.0,30.10,West,265,0.0,0.0,84,0.00,CLR,OVC,0.00,WeatherDisplay:10.37,2013-07-04 04:31:00,
2013-07-03 21:32:00,57.8,52.7,30.10,West,265,0.0,0.0,83,0.00,CLR,OVC,0.00,WeatherDisplay:10.37,2013-07-04 04:32:00,
2013-07-03 21:33:00,57.8,53.0,30.10,West,265,0.0,0.0,84,0.00,CLR,OVC,0.00,WeatherDisplay:10.37,2013-07-04 04:33:00,
2013-07-03 21:37:00,57.6,52.8,30.10,West,265,0.0,0.0,84,0.00,CLR,OVC,0.00,WeatherDisplay:10.37,2013-07-04 04:37:00,
2013-07-03 21:38:00,57.6,52.8,30.10,West,265,0.2,1.0,84,0.00,CLR,OVC,0.00,WeatherDisplay:10.37,2013-07-04 04:38:00,
2013-07-03 21:42:00,57.4,52.6,30.11,West,265,0.0,1.2,84,0.00,CLR,OVC,0.00,WeatherDisplay:10.37,2013-07-04 04:42:00,
2013-07-03 21:43:00,57.4,52.9,30.11,West,265,0.1,1.2,85,0.00,CLR,OVC,0.00,WeatherDisplay:10.37,2013-07-04 04:43:00,
2013-07-03 21:47:00,57.3,52.8,30.11,West,265,0.0,1.2,85,0.00,CLR,OVC,0.00,WeatherDisplay:10.37,2013-07-04 04:47:00,
2013-07-03 21:48:00,57.3,52.8,30.11,West,265,0.0,0.0,85,0.00,CLR,OVC,0.00,WeatherDisplay:10.37,2013-07-04 04:48:00,
2013-07-03 21:53:00,57.1,52.6,30.11,West,265,0.1,1.2,85,0.00,CLR,OVC,0.00,WeatherDisplay:10.37,2013-07-04 04:53:00,
2013-07-03 21:54:00,57.1,52.6,30.11,West,265,0.2,1.2,85,0.00,CLR,OVC,0.00,WeatherDisplay:10.37,2013-07-04 04:54:00,
2013-07-03 21:58:00,56.9,52.4,30.11,West,265,0.0,1.2,85,0.00,CLR,OVC,0.00,WeatherDisplay:10.37,2013-07-04 04:58:00,
2013-07-03 21:59:00,56.9,52.4,30.11,West,265,0.1,1.2,85,0.00,CLR,OVC,0.00,WeatherDisplay:10.37,2013-07-04 04:59:00,
2013-07-03 22:00:00,56.9,52.4,30.11,West,265,0.0,0.0,85,0.00,CLR,OVC,0.00,WeatherDisplay:10.37,2013-07-04 05:00:00,
2013-07-03 22:03:00,56.7,52.2,30.12,West,265,0.2,1.2,85,0.00,CLR,OVC,0.00,WeatherDisplay:10.37,2013-07-04 05:03:00,
2013-07-03 22:04:00,56.7,52.2,30.12,West,265,0.3,2.3,85,0.00,CLR,OVC,0.00,WeatherDisplay:10.37,2013-07-04 05:04:00,
2013-07-03 22:05:00,56.6,52.5,30.12,West,265,0.0,0.0,86,0.00,CLR,OVC,0.00,WeatherDisplay:10.37,2013-07-04 05:05:00,
2013-07-03 22:08:00,56.5,52.4,30.12,West,265,0.3,2.3,86,0.00,CLR,OVC,0.00,WeatherDisplay:10.37,2013-07-04 05:08:00,
2013-07-03 22:09:00,56.5,52.4,30.12,West,265,0.0,1.2,86,0.00,CLR,OVC,0.00,WeatherDisplay:10.37,2013-07-04 05:09:00,
2013-07-03 22:11:00,56.4,52.3,30.12,West,265,0.4,2.3,86,0.00,CLR,OVC,0.00,WeatherDisplay:10.37,2013-07-04 05:11:00,
2013-07-03 22:13:00,56.3,52.2,30.12,West,265,0.0,1.2,86,0.00,CLR,OVC,0.00,WeatherDisplay:10.37,2013-07-04 05:13:00,
2013-07-03 22:14:00,56.3,52.2,30.12,West,265,0.0,0.0,86,0.00,CLR,OVC,0.00,WeatherDisplay:10.37,2013-07-04 05:14:00,
2013-07-03 22:16:00,56.2,52.1,30.12,West,265,0.0,1.2,86,0.00,CLR,OVC,0.00,WeatherDisplay:10.37,2013-07-04 05:16:00,
2013-07-03 22:18:00,56.2,52.1,30.12,West,265,0.0,0.0,86,0.00,CLR,OVC,0.00,WeatherDisplay:10.37,2013-07-04 05:18:00,
2013-07-03 22:19:00,56.2,52.1,30.12,West,265,0.0,0.0,86,0.00,CLR,OVC,0.00,WeatherDisplay:10.37,2013-07-04 05:19:00,
2013-07-03 22:21:00,56.0,52.2,30.12,West,265,0.3,0.0,87,0.00,CLR,OVC,0.00,WeatherDisplay:10.37,2013-07-04 05:21:00,
2013-07-03 22:24:00,56.0,52.2,30.12,West,265,0.0,0.0,87,0.00,CLR,OVC,0.00,WeatherDisplay:10.37,2013-07-04 05:24:00,
2013-07-03 22:25:00,56.0,52.2,30.12,West,265,0.0,1.2,87,0.00,CLR,OVC,0.00,WeatherDisplay:10.37,2013-07-04 05:25:00,
2013-07-03 22:27:00,55.9,52.1,30.12,West,265,0.0,1.2,87,0.00,CLR,OVC,0.00,WeatherDisplay:10.37,2013-07-04 05:27:00,
2013-07-03 22:29:00,55.8,52.0,30.12,West,265,0.0,1.2,87,0.00,CLR,OVC,0.00,WeatherDisplay:10.37,2013-07-04 05:29:00,
2013-07-03 22:30:00,55.8,52.0,30.12,West,265,0.0,1.2,87,0.00,CLR,OVC,0.00,WeatherDisplay:10.37,2013-07-04 05:30:00,
2013-07-03 22:32:00,55.7,51.9,30.12,West,265,0.1,1.2,87,0.00,CLR,OVC,0.00,WeatherDisplay:10.37,2013-07-04 05:32:00,
2013-07-03 22:34:00,55.7,51.9,30.12,West,265,0.2,1.2,87,0.00,CLR,OVC,0.00,WeatherDisplay:10.37,2013-07-04 05:34:00,
2013-07-03 22:35:00,55.6,51.8,30.12,West,265,0.1,1.2,87,0.00,CLR,OVC,0.00,WeatherDisplay:10.37,2013-07-04 05:35:00,
2013-07-03 22:37:00,55.6,51.8,30.12,West,265,1.2,3.5,87,0.00,CLR,OVC,0.00,WeatherDisplay:10.37,2013-07-04 05:37:00,
2013-07-03 22:39:00,55.6,51.8,30.12,West,265,1.0,1.2,87,0.00,CLR,OVC,0.00,WeatherDisplay:10.37,2013-07-04 05:39:00,
2013-07-03 22:40:00,55.6,51.8,30.12,West,265,1.0,1.2,87,0.00,CLR,OVC,0.00,WeatherDisplay:10.37,2013-07-04 05:40:00,
2013-07-03 22:41:00,55.5,51.7,30.12,West,265,0.7,1.2,87,0.00,CLR,OVC,0.00,WeatherDisplay:10.37,2013-07-04 05:41:00,
2013-07-03 22:42:00,55.4,51.9,30.13,West,265,0.4,3.5,88,0.00,CLR,OVC,0.00,WeatherDisplay:10.37,2013-07-04 05:42:00,
2013-07-03 22:44:00,55.3,51.8,30.13,West,265,0.0,1.2,88,0.00,CLR,OVC,0.00,WeatherDisplay:10.37,2013-07-04 05:44:00,
2013-07-03 22:46:00,55.3,51.8,30.13,West,265,0.0,1.2,88,0.00,CLR,OVC,0.00,WeatherDisplay:10.37,2013-07-04 05:46:00,
2013-07-03 22:48:00,55.3,51.8,30.13,West,265,0.1,1.2,88,0.00,CLR,OVC,0.00,WeatherDisplay:10.37,2013-07-04 05:48:00,
2013-07-03 22:50:00,55.2,51.7,30.13,West,265,0.2,2.3,88,0.00,CLR,OVC,0.00,WeatherDisplay:10.37,2013-07-04 05:50:00,
2013-07-03 22:51:00,55.1,51.6,30.13,West,265,0.0,1.2,88,0.00,CLR,OVC,0.00,WeatherDisplay:10.37,2013-07-04 05:51:00,
2013-07-03 22:53:00,55.1,51.6,30.13,West,265,0.0,1.2,88,0.00,CLR,OVC,0.00,WeatherDisplay:10.37,2013-07-04 05:53:00,
2013-07-03 22:55:00,55.0,51.5,30.13,West,265,0.1,1.2,88,0.00,CLR,OVC,0.00,WeatherDisplay:10.37,2013-07-04 05:55:00,
2013-07-03 22:56:00,55.0,51.5,30.13,West,265,0.0,0.0,88,0.00,CLR,OVC,0.00,WeatherDisplay:10.37,2013-07-04 05:56:00,
2013-07-03 22:59:00,55.0,51.8,30.13,West,265,0.0,1.2,89,0.00,CLR,OVC,0.00,WeatherDisplay:10.37,2013-07-04 05:59:00,
2013-07-03 23:00:00,54.9,51.7,30.13,West,265,0.0,0.0,89,0.00,CLR,OVC,0.00,WeatherDisplay:10.37,2013-07-04 06:00:00,
2013-07-03 23:01:00,54.9,51.7,30.13,West,265,0.0,1.2,89,0.00,CLR,OVC,0.00,WeatherDisplay:10.37,2013-07-04 06:01:00,
2013-07-03 23:04:00,54.8,51.6,30.13,West,265,0.0,0.0,89,0.00,CLR,OVC,0.00,WeatherDisplay:10.37,2013-07-04 06:04:00,
2013-07-03 23:05:00,54.8,51.6,30.13,West,265,0.0,0.0,89,0.00,CLR,OVC,0.00,WeatherDisplay:10.37,2013-07-04 06:05:00,
2013-07-03 23:06:00,54.8,51.6,30.13,West,265,0.0,0.0,89,0.00,CLR,OVC,0.00,WeatherDisplay:10.37,2013-07-04 06:06:00,
2013-07-03 23:07:00,54.7,51.5,30.13,West,265,0.0,0.0,89,0.00,CLR,OVC,0.00,WeatherDisplay:10.37,2013-07-04 06:07:00,
2013-07-03 23:09:00,54.6,51.4,30.13,West,265,0.0,0.0,89,0.00,CLR,OVC,0.00,WeatherDisplay:10.37,2013-07-04 06:09:00,
2013-07-03 23:11:00,54.6,51.4,30.13,West,265,0.0,0.0,89,0.00,CLR,OVC,0.00,WeatherDisplay:10.37,2013-07-04 06:11:00,
2013-07-03 23:12:00,54.6,51.4,30.13,West,265,0.0,0.0,89,0.00,CLR,OVC,0.00,WeatherDisplay:10.37,2013-07-04 06:12:00,
2013-07-03 23:14:00,54.5,51.6,30.13,West,265,0.0,0.0,90,0.00,CLR,OVC,0.00,WeatherDisplay:10.37,2013-07-04 06:14:00,
2013-07-03 23:16:00,54.5,51.6,30.13,West,265,0.1,0.0,90,0.00,CLR,OVC,0.00,WeatherDisplay:10.37,2013-07-04 06:16:00,
2013-07-03 23:17:00,54.5,51.6,30.13,West,265,0.1,1.2,90,0.00,CLR,OVC,0.00,WeatherDisplay:10.37,2013-07-04 06:17:00,
2013-07-03 23:18:00,54.5,51.6,30.13,West,265,0.0,1.2,90,0.00,CLR,OVC,0.00,WeatherDisplay:10.37,2013-07-04 06:18:00,
2013-07-03 23:20:00,54.4,51.5,30.13,West,266,0.2,3.0,90,0.00,CLR,OVC,0.00,WeatherDisplay:10.37,2013-07-04 06:20:00,
2013-07-03 23:21:00,54.4,51.5,30.13,West,266,0.1,3.5,90,0.00,CLR,OVC,0.00,WeatherDisplay:10.37,2013-07-04 06:21:00,
2013-07-03 23:22:00,54.4,51.5,30.13,West,266,0.0,0.0,90,0.00,CLR,OVC,0.00,WeatherDisplay:10.37,2013-07-04 06:22:00,
2013-07-03 23:23:00,54.4,51.5,30.13,West,266,0.0,0.0,90,0.00,CLR,OVC,0.00,WeatherDisplay:10.37,2013-07-04 06:23:00,
2013-07-03 23:25:00,54.3,51.4,30.13,West,266,0.1,1.2,90,0.00,CLR,OVC,0.00,WeatherDisplay:10.37,2013-07-04 06:25:00,
2013-07-03 23:26:00,54.3,51.4,30.12,West,266,0.4,2.3,90,0.00,CLR,OVC,0.00,WeatherDisplay:10.37,2013-07-04 06:26:00,
2013-07-03 23:27:00,54.3,51.4,30.12,West,266,0.0,2.3,90,0.00,CLR,OVC,0.00,WeatherDisplay:10.37,2013-07-04 06:27:00,
2013-07-03 23:28:00,54.3,51.4,30.12,West,266,0.0,0.0,90,0.00,CLR,OVC,0.00,WeatherDisplay:10.37,2013-07-04 06:28:00,
2013-07-03 23:30:00,54.2,51.3,30.12,West,266,0.0,0.0,90,0.00,CLR,OVC,0.00,WeatherDisplay:10.37,2013-07-04 06:30:00,
2013-07-03 23:31:00,54.2,51.3,30.12,West,266,0.5,1.2,90,0.00,CLR,OVC,0.00,WeatherDisplay:10.37,2013-07-04 06:31:00,
2013-07-03 23:32:00,54.2,51.3,30.12,West,266,0.4,2.3,90,0.00,CLR,OVC,0.00,WeatherDisplay:10.37,2013-07-04 06:32:00,
2013-07-03 23:33:00,54.2,51.3,30.12,West,266,0.0,1.2,90,0.00,CLR,OVC,0.00,WeatherDisplay:10.37,2013-07-04 06:33:00,
2013-07-03 23:35:00,54.2,51.3,30.12,West,266,0.1,1.2,90,0.00,CLR,OVC,0.00,WeatherDisplay:10.37,2013-07-04 06:35:00,
2013-07-03 23:36:00,54.2,51.3,30.12,West,266,0.0,0.0,90,0.00,CLR,OVC,0.00,WeatherDisplay:10.37,2013-07-04 06:36:00,
2013-07-03 23:38:00,54.1,51.2,30.12,West,266,0.0,1.0,90,0.00,CLR,OVC,0.00,WeatherDisplay:10.37,2013-07-04 06:38:00,
2013-07-03 23:40:00,54.1,51.2,30.12,West,266,0.0,0.0,90,0.00,CLR,OVC,0.00,WeatherDisplay:10.37,2013-07-04 06:40:00,
2013-07-03 23:42:00,54.1,51.2,30.12,West,266,0.0,0.0,90,0.00,CLR,OVC,0.00,WeatherDisplay:10.37,2013-07-04 06:42:00,
2013-07-03 23:43:00,54.1,51.2,30.12,West,266,0.0,0.0,90,0.00,CLR,OVC,0.00,WeatherDisplay:10.37,2013-07-04 06:43:00,
2013-07-03 23:44:00,54.1,51.2,30.12,West,266,0.0,0.0,90,0.00,CLR,OVC,0.00,WeatherDisplay:10.37,2013-07-04 06:44:00,
2013-07-03 23:45:00,54.1,51.2,30.12,West,266,0.0,0.0,90,0.00,CLR,OVC,0.00,WeatherDisplay:10.37,2013-07-04 06:45:00,
2013-07-03 23:47:00,54.0,51.1,30.12,West,266,0.1,0.0,90,0.00,CLR,OVC,0.00,WeatherDisplay:10.37,2013-07-04 06:47:00,
2013-07-03 23:48:00,54.0,51.4,30.12,West,266,0.0,1.2,91,0.00,CLR,OVC,0.00,WeatherDisplay:10.37,2013-07-04 06:48:00,
2013-07-03 23:49:00,54.0,51.4,30.12,West,266,0.0,0.0,91,0.00,CLR,OVC,0.00,WeatherDisplay:10.37,2013-07-04 06:49:00,
2013-07-03 23:50:00,54.0,51.4,30.12,West,266,0.0,0.0,91,0.00,CLR,OVC,0.00,WeatherDisplay:10.37,2013-07-04 06:50:00,
2013-07-03 23:52:00,54.0,51.4,30.12,West,266,0.0,0.0,91,0.00,CLR,OVC,0.00,WeatherDisplay:10.37,2013-07-04 06:52:00,
2013-07-03 23:53:00,53.9,51.3,30.12,West,266,0.0,0.0,91,0.00,CLR,OVC,0.00,WeatherDisplay:10.37,2013-07-04 06:53:00,
2013-07-03 23:54:00,53.9,51.3,30.12,West,266,0.0,0.0,91,0.00,CLR,OVC,0.00,WeatherDisplay:10.37,2013-07-04 06:54:00,
2013-07-03 23:56:00,53.9,51.3,30.12,West,266,0.0,0.0,91,0.00,CLR,OVC,0.00,WeatherDisplay:10.37,2013-07-04 06:56:00,
2013-07-03 23:57:00,53.9,51.3,30.12,West,266,0.1,1.2,91,0.00,CLR,OVC,0.00,WeatherDisplay:10.37,2013-07-04 06:57:00,
2013-07-03 23:59:00,53.9,51.3,30.12,West,266,0.0,0.0,91,0.00,CLR,OVC,0.00,WeatherDisplay:10.37,2013-07-04 06:59:00,